Observation data for Clyde on 12/10/2018      Previous  Date       Current Mesonet Observations  Soil Data  Daily Summary Page  Observations in Plain Language
KCL2 100600Z 27005KT M02/M05 A3038 RMK A01 T10241046  RH  085%=      5-min Rain = 0
KCL2 100601Z 27005KT M02/M05 A3038 RMK A01 T10241046  RH  085%=      5-min Rain = 0
KCL2 100602Z 27005KT M02/M05 A3038 RMK A01 T10241046  RH  085%=      5-min Rain = 0
KCL2 100603Z 27005KT M03/M05 A3037 RMK A01 T10251046  RH  085%=      5-min Rain = 0
KCL2 100604Z 27005KT M02/M05 A3037 RMK A01 T10241046  RH  085%=      5-min Rain = 0
KCL2 100605Z 27005KT M02/M05 A3037 RMK A01 T10241046  RH  085%=      5-min Rain = 0
KCL2 100606Z 27005KT M02/M05 A3037 RMK A01 T10241046  RH  085%=      5-min Rain = 0
KCL2 100607Z 27005KT M02/M05 A3038 RMK A01 T10241046  RH  085%=      5-min Rain = 0
KCL2 100608Z 28005KT M02/M05 A3038 RMK A01 T10241046  RH  085%=      5-min Rain = 0
KCL2 100609Z 28006KT M02/M05 A3038 RMK A01 T10241046  RH  085%=      5-min Rain = 0
KCL2 100610Z 28005KT M02/M05 A3038 RMK A01 T10241046  RH  085%=      5-min Rain = 0
KCL2 100611Z 28005KT M03/M05 A3038 RMK A01 T10251047  RH  085%=      5-min Rain = 0
KCL2 100612Z 28006KT M03/M05 A3038 RMK A01 T10251047  RH  085%=      5-min Rain = 0
KCL2 100613Z 28006KT M03/M05 A3038 RMK A01 T10251048  RH  085%=      5-min Rain = 0
KCL2 100614Z 28006KT M03/M05 A3038 RMK A01 T10261048  RH  085%=      5-min Rain = 0
KCL2 100615Z 28006KT M03/M05 A3038 RMK A01 T10261048  RH  085%=      5-min Rain = 0
KCL2 100616Z 28006KT M03/M05 A3038 RMK A01 T10261048  RH  085%=      5-min Rain = 0
KCL2 100617Z 28006KT M03/M05 A3038 RMK A01 T10261048  RH  085%=      5-min Rain = 0
KCL2 100618Z 28005KT M03/M05 A3038 RMK A01 T10251048  RH  084%=      5-min Rain = 0
KCL2 100619Z 28005KT M03/M05 A3038 RMK A01 T10251048  RH  084%=      5-min Rain = 0
KCL2 100620Z 28005KT M03/M05 A3038 RMK A01 T10251048  RH  084%=      5-min Rain = 0
KCL2 100621Z 28005KT M03/M05 A3038 RMK A01 T10251048  RH  084%=      5-min Rain = 0
KCL2 100622Z 28005KT M03/M05 A3038 RMK A01 T10251048  RH  084%=      5-min Rain = 0
KCL2 100623Z 28005KT M03/M05 A3038 RMK A01 T10261048  RH  084%=      5-min Rain = 0
KCL2 100624Z 28005KT M03/M05 A3038 RMK A01 T10251048  RH  084%=      5-min Rain = 0
KCL2 100625Z 28005KT M03/M05 A3037 RMK A01 T10261049  RH  084%=      5-min Rain = 0
KCL2 100626Z 28005KT M03/M05 A3037 RMK A01 T10251049  RH  084%=      5-min Rain = 0
KCL2 100627Z 27005KT M03/M05 A3037 RMK A01 T10251049  RH  084%=      5-min Rain = 0
KCL2 100628Z 27005KT M03/M05 A3037 RMK A01 T10251049  RH  084%=      5-min Rain = 0
KCL2 100629Z 27005KT M03/M05 A3037 RMK A01 T10251049  RH  084%=      5-min Rain = 0
KCL2 100630Z 27005KT M03/M05 A3037 RMK A01 T10251049  RH  084%=      5-min Rain = 0
KCL2 100631Z 27005KT M03/M05 A3037 RMK A01 T10251049  RH  083%=      5-min Rain = 0
KCL2 100632Z 27006KT M03/M05 A3037 RMK A01 T10251049  RH  083%=      5-min Rain = 0
KCL2 100633Z 26006KT M03/M05 A3037 RMK A01 T10251049  RH  084%=      5-min Rain = 0
KCL2 100634Z 26005KT M03/M05 A3037 RMK A01 T10251048  RH  084%=      5-min Rain = 0
KCL2 100635Z 26005KT M02/M05 A3037 RMK A01 T10241048  RH  084%=      5-min Rain = 0
KCL2 100636Z 26005KT M03/M05 A3037 RMK A01 T10251048  RH  084%=      5-min Rain = 0
KCL2 100637Z 26005KT M02/M05 A3037 RMK A01 T10241047  RH  084%=      5-min Rain = 0
KCL2 100638Z 26005KT M02/M05 A3037 RMK A01 T10241047  RH  084%=      5-min Rain = 0
KCL2 100639Z 26006KT M02/M05 A3037 RMK A01 T10241048  RH  084%=      5-min Rain = 0
KCL2 100640Z 26005KT M02/M05 A3036 RMK A01 T10241048  RH  083%=      5-min Rain = 0
KCL2 100641Z 27005KT M02/M05 A3036 RMK A01 T10241048  RH  083%=      5-min Rain = 0
KCL2 100642Z 27005KT M02/M05 A3036 RMK A01 T10241048  RH  083%=      5-min Rain = 0
KCL2 100643Z 27005KT M02/M05 A3036 RMK A01 T10231048  RH  083%=      5-min Rain = 0
KCL2 100644Z 27005KT M02/M05 A3036 RMK A01 T10231048  RH  083%=      5-min Rain = 0
KCL2 100645Z 27005KT M02/M05 A3036 RMK A01 T10231048  RH  083%=      5-min Rain = 0
KCL2 100646Z 27005KT M02/M05 A3036 RMK A01 T10231048  RH  083%=      5-min Rain = 0
KCL2 100647Z 27006KT M02/M05 A3036 RMK A01 T10221047  RH  084%=      5-min Rain = 0
KCL2 100648Z 27005KT M02/M05 A3036 RMK A01 T10221047  RH  083%=      5-min Rain = 0
KCL2 100649Z 28006KT M02/M05 A3036 RMK A01 T10221048  RH  082%=      5-min Rain = 0
KCL2 100650Z 28005KT M02/M05 A3036 RMK A01 T10221048  RH  082%=      5-min Rain = 0
KCL2 100651Z 28005KT M02/M05 A3036 RMK A01 T10231049  RH  082%=      5-min Rain = 0
KCL2 100652Z 28005KT M02/M05 A3036 RMK A01 T10231049  RH  082%=      5-min Rain = 0
KCL2 100653Z 28005KT M02/M05 A3036 RMK A01 T10221048  RH  082%=      5-min Rain = 0
KCL2 100654Z 28005KT M02/M05 A3036 RMK A01 T10231049  RH  082%=      5-min Rain = 0
KCL2 100655Z 28005KT M02/M05 A3036 RMK A01 T10221049  RH  082%=      5-min Rain = 0
KCL2 100656Z 28005KT M02/M05 A3036 RMK A01 T10221049  RH  082%=      5-min Rain = 0
KCL2 100657Z 28005KT M02/M05 A3036 RMK A01 T10221049  RH  082%=      5-min Rain = 0
KCL2 100658Z 28005KT M02/M05 A3036 RMK A01 T10211049  RH  081%=      5-min Rain = 0
KCL2 100659Z 28005KT M02/M05 A3036 RMK A01 T10211049  RH  081%=      5-min Rain = 0
KCL2 100700Z 27005KT M02/M05 A3036 RMK A01 T10201049  RH  081%=      5-min Rain = 0
KCL2 100701Z 27005KT M02/M05 A3036 RMK A01 T10201049  RH  081%=      5-min Rain = 0
KCL2 100702Z 27005KT M02/M05 A3036 RMK A01 T10211049  RH  081%=      5-min Rain = 0
KCL2 100703Z 27005KT M02/M05 A3036 RMK A01 T10211050  RH  081%=      5-min Rain = 0
KCL2 100704Z 27005KT M02/M05 A3036 RMK A01 T10211050  RH  081%=      5-min Rain = 0
KCL2 100705Z 27005KT M02/M05 A3036 RMK A01 T10211050  RH  081%=      5-min Rain = 0
KCL2 100706Z 27005KT M02/M05 A3036 RMK A01 T10221050  RH  081%=      5-min Rain = 0
KCL2 100707Z 27005KT M02/M05 A3036 RMK A01 T10221050  RH  081%=      5-min Rain = 0
KCL2 100708Z 27005KT M02/M05 A3036 RMK A01 T10221050  RH  081%=      5-min Rain = 0
KCL2 100709Z 28005KT M02/M05 A3036 RMK A01 T10221050  RH  081%=      5-min Rain = 0
KCL2 100710Z 28005KT M02/M05 A3036 RMK A01 T10221050  RH  081%=      5-min Rain = 0
KCL2 100711Z 28005KT M02/M05 A3036 RMK A01 T10221050  RH  081%=      5-min Rain = 0
KCL2 100712Z 28005KT M02/M05 A3036 RMK A01 T10221050  RH  081%=      5-min Rain = 0
KCL2 100713Z 28006KT M02/M05 A3036 RMK A01 T10221050  RH  081%=      5-min Rain = 0
KCL2 100714Z 28005KT M02/M05 A3036 RMK A01 T10221050  RH  081%=      5-min Rain = 0
KCL2 100715Z 28005KT M02/M05 A3036 RMK A01 T10231050  RH  081%=      5-min Rain = 0
KCL2 100716Z 28005KT M02/M05 A3036 RMK A01 T10231050  RH  082%=      5-min Rain = 0
KCL2 100717Z 28005KT M02/M05 A3036 RMK A01 T10231050  RH  082%=      5-min Rain = 0
KCL2 100718Z 28005KT M02/M05 A3036 RMK A01 T10231050  RH  082%=      5-min Rain = 0
KCL2 100719Z 28005KT M02/M05 A3036 RMK A01 T10231050  RH  082%=      5-min Rain = 0
KCL2 100720Z 28005KT M02/M05 A3036 RMK A01 T10221050  RH  082%=      5-min Rain = 0
KCL2 100721Z 28005KT M02/M05 A3036 RMK A01 T10221050  RH  082%=      5-min Rain = 0
KCL2 100722Z 28005KT M02/M05 A3036 RMK A01 T10221050  RH  081%=      5-min Rain = 0
KCL2 100723Z 28005KT M02/M05 A3036 RMK A01 T10221050  RH  081%=      5-min Rain = 0
KCL2 100724Z 27005KT M02/M05 A3036 RMK A01 T10221050  RH  081%=      5-min Rain = 0
KCL2 100725Z 27004KT M02/M05 A3036 RMK A01 T10221050  RH  081%=      5-min Rain = 0
KCL2 100726Z 27004KT M02/M05 A3036 RMK A01 T10221050  RH  081%=      5-min Rain = 0
KCL2 100727Z 27005KT M02/M05 A3036 RMK A01 T10221050  RH  081%=      5-min Rain = 0
KCL2 100728Z 27005KT M02/M05 A3036 RMK A01 T10221051  RH  081%=      5-min Rain = 0
KCL2 100729Z 27005KT M02/M05 A3036 RMK A01 T10221050  RH  081%=      5-min Rain = 0
KCL2 100730Z 26005KT M02/M05 A3036 RMK A01 T10211050  RH  081%=      5-min Rain = 0
KCL2 100731Z 26005KT M02/M05 A3036 RMK A01 T10211051  RH  080%=      5-min Rain = 0
KCL2 100732Z 26006KT M02/M05 A3036 RMK A01 T10221051  RH  080%=      5-min Rain = 0
KCL2 100733Z 26005KT M02/M05 A3036 RMK A01 T10211050  RH  081%=      5-min Rain = 0
KCL2 100734Z 26005KT M02/M05 A3036 RMK A01 T10221050  RH  081%=      5-min Rain = 0
KCL2 100735Z 26005KT M02/M05 A3036 RMK A01 T10221051  RH  081%=      5-min Rain = 0
KCL2 100736Z 26004KT M02/M05 A3036 RMK A01 T10231051  RH  081%=      5-min Rain = 0
KCL2 100737Z 26004KT M02/M05 A3036 RMK A01 T10231051  RH  081%=      5-min Rain = 0
KCL2 100738Z 26004KT M02/M05 A3036 RMK A01 T10241051  RH  082%=      5-min Rain = 0
KCL2 100739Z 26004KT M02/M05 A3036 RMK A01 T10241050  RH  082%=      5-min Rain = 0
KCL2 100740Z 26003KT M02/M05 A3036 RMK A01 T10231049  RH  082%=      5-min Rain = 0
KCL2 100741Z 26003KT M02/M05 A3035 RMK A01 T10211048  RH  082%=      5-min Rain = 0
KCL2 100742Z 26003KT M02/M05 A3035 RMK A01 T10201048  RH  081%=      5-min Rain = 0
KCL2 100743Z 25002KT M02/M05 A3035 RMK A01 T10191047  RH  081%=      5-min Rain = 0
KCL2 100744Z 25003KT M02/M05 A3035 RMK A01 T10191047  RH  081%=      5-min Rain = 0
KCL2 100745Z 26002KT M02/M05 A3035 RMK A01 T10191048  RH  081%=      5-min Rain = 0
KCL2 100746Z 26003KT M02/M05 A3035 RMK A01 T10191048  RH  081%=      5-min Rain = 0
KCL2 100747Z 26003KT M02/M05 A3035 RMK A01 T10191047  RH  081%=      5-min Rain = 0
KCL2 100748Z 26004KT M02/M05 A3035 RMK A01 T10191047  RH  081%=      5-min Rain = 0
KCL2 100749Z 27003KT M02/M05 A3035 RMK A01 T10191047  RH  081%=      5-min Rain = 0
KCL2 100750Z 27003KT M02/M05 A3035 RMK A01 T10181047  RH  081%=      5-min Rain = 0
KCL2 100751Z 27003KT M02/M05 A3036 RMK A01 T10181046  RH  081%=      5-min Rain = 0
KCL2 100752Z 27003KT M02/M05 A3036 RMK A01 T10171046  RH  080%=      5-min Rain = 0
KCL2 100753Z 27004KT M02/M05 A3036 RMK A01 T10161046  RH  080%=      5-min Rain = 0
KCL2 100754Z 27005KT M02/M05 A3036 RMK A01 T10161046  RH  080%=      5-min Rain = 0
KCL2 100755Z 27005KT M02/M05 A3036 RMK A01 T10151046  RH  079%=      5-min Rain = 0
KCL2 100756Z 26005KT M02/M05 A3036 RMK A01 T10151047  RH  079%=      5-min Rain = 0
KCL2 100757Z 26005KT M02/M05 A3036 RMK A01 T10151047  RH  079%=      5-min Rain = 0
KCL2 100758Z 26005KT M02/M05 A3036 RMK A01 T10161048  RH  079%=      5-min Rain = 0
KCL2 100759Z 25005KT M02/M05 A3036 RMK A01 T10151047  RH  079%=      5-min Rain = 0
KCL2 100800Z 25004KT M02/M05 A3036 RMK A01 T10161048  RH  079%=      5-min Rain = 0
KCL2 100801Z 26005KT M02/M05 A3036 RMK A01 T10161048  RH  079%=      5-min Rain = 0
KCL2 100802Z 25005KT M02/M05 A3036 RMK A01 T10171049  RH  079%=      5-min Rain = 0
KCL2 100803Z 25004KT M02/M05 A3036 RMK A01 T10181049  RH  079%=      5-min Rain = 0
KCL2 100804Z 25005KT M02/M05 A3036 RMK A01 T10181050  RH  079%=      5-min Rain = 0
KCL2 100805Z 25005KT M02/M05 A3036 RMK A01 T10191050  RH  079%=      5-min Rain = 0
KCL2 100806Z 25005KT M02/M05 A3036 RMK A01 T10191051  RH  079%=      5-min Rain = 0
KCL2 100807Z 25005KT M02/M05 A3036 RMK A01 T10191050  RH  080%=      5-min Rain = 0
KCL2 100808Z 25005KT M02/M05 A3036 RMK A01 T10191050  RH  080%=      5-min Rain = 0
KCL2 100809Z 25005KT M02/M05 A3036 RMK A01 T10191049  RH  079%=      5-min Rain = 0
KCL2 100810Z 25005KT M02/M05 A3036 RMK A01 T10191049  RH  080%=      5-min Rain = 0
KCL2 100811Z 25005KT M02/M05 A3036 RMK A01 T10191050  RH  080%=      5-min Rain = 0
KCL2 100812Z 25005KT M02/M05 A3036 RMK A01 T10191049  RH  079%=      5-min Rain = 0
KCL2 100813Z 25005KT M02/M05 A3036 RMK A01 T10181049  RH  079%=      5-min Rain = 0
KCL2 100814Z 26004KT M02/M05 A3036 RMK A01 T10181049  RH  079%=      5-min Rain = 0
KCL2 100815Z 25004KT M02/M05 A3035 RMK A01 T10171049  RH  079%=      5-min Rain = 0
KCL2 100816Z 26005KT M02/M05 A3035 RMK A01 T10161049  RH  079%=      5-min Rain = 0
KCL2 100817Z 26004KT M02/M05 A3035 RMK A01 T10151048  RH  078%=      5-min Rain = 0
KCL2 100818Z 25005KT M02/M05 A3035 RMK A01 T10151048  RH  078%=      5-min Rain = 0
KCL2 100819Z 26005KT M01/M05 A3035 RMK A01 T10141049  RH  077%=      5-min Rain = 0
KCL2 100820Z 26005KT M01/M05 A3035 RMK A01 T10131049  RH  077%=      5-min Rain = 0
KCL2 100821Z 26005KT M01/M05 A3035 RMK A01 T10121049  RH  076%=      5-min Rain = 0
KCL2 100822Z 26005KT M01/M05 A3035 RMK A01 T10121050  RH  076%=      5-min Rain = 0
KCL2 100823Z 26005KT M01/M05 A3035 RMK A01 T10121050  RH  075%=      5-min Rain = 0
KCL2 100824Z 26006KT M01/M05 A3035 RMK A01 T10111050  RH  075%=      5-min Rain = 0
KCL2 100825Z 26006KT M01/M05 A3035 RMK A01 T10111050  RH  075%=      5-min Rain = 0
KCL2 100826Z 26006KT M01/M05 A3035 RMK A01 T10121051  RH  075%=      5-min Rain = 0
KCL2 100827Z 26006KT M01/M05 A3036 RMK A01 T10131052  RH  075%=      5-min Rain = 0
KCL2 100828Z 27006KT M01/M05 A3036 RMK A01 T10141052  RH  075%=      5-min Rain = 0
KCL2 100829Z 27005KT M01/M05 A3035 RMK A01 T10141052  RH  075%=      5-min Rain = 0
KCL2 100830Z 27005KT M02/M05 A3035 RMK A01 T10151053  RH  075%=      5-min Rain = 0
KCL2 100831Z 27005KT M02/M05 A3035 RMK A01 T10151053  RH  075%=      5-min Rain = 0
KCL2 100832Z 27005KT M02/M05 A3035 RMK A01 T10151053  RH  075%=      5-min Rain = 0
KCL2 100833Z 27005KT M02/M05 A3035 RMK A01 T10161053  RH  076%=      5-min Rain = 0
KCL2 100834Z 28006KT M02/M05 A3035 RMK A01 T10161052  RH  076%=      5-min Rain = 0
KCL2 100835Z 27006KT M02/M05 A3035 RMK A01 T10171053  RH  076%=      5-min Rain = 0
KCL2 100836Z 27005KT M02/M05 A3035 RMK A01 T10171054  RH  076%=      5-min Rain = 0
KCL2 100837Z 27005KT M02/M05 A3035 RMK A01 T10171054  RH  076%=      5-min Rain = 0
KCL2 100838Z 27005KT M02/M05 A3035 RMK A01 T10171054  RH  076%=      5-min Rain = 0
KCL2 100839Z 27005KT M02/M05 A3035 RMK A01 T10171054  RH  076%=      5-min Rain = 0
KCL2 100840Z 27005KT M02/M05 A3035 RMK A01 T10161054  RH  075%=      5-min Rain = 0
KCL2 100841Z 27005KT M02/M05 A3035 RMK A01 T10151054  RH  075%=      5-min Rain = 0
KCL2 100842Z 27005KT M02/M05 A3035 RMK A01 T10151054  RH  074%=      5-min Rain = 0
KCL2 100843Z 27005KT M01/M05 A3036 RMK A01 T10141054  RH  074%=      5-min Rain = 0
KCL2 100844Z 27005KT M01/M05 A3036 RMK A01 T10131054  RH  074%=      5-min Rain = 0
KCL2 100845Z 27005KT M01/M05 A3036 RMK A01 T10131054  RH  073%=      5-min Rain = 0
KCL2 100846Z 27005KT M01/M05 A3036 RMK A01 T10121054  RH  073%=      5-min Rain = 0
KCL2 100847Z 27005KT M01/M05 A3036 RMK A01 T10111054  RH  073%=      5-min Rain = 0
KCL2 100848Z 27005KT M01/M06 A3036 RMK A01 T10111055  RH  072%=      5-min Rain = 0
KCL2 100849Z 26005KT M01/M06 A3036 RMK A01 T10111055  RH  072%=      5-min Rain = 0
KCL2 100850Z 26005KT M01/M05 A3036 RMK A01 T10111054  RH  072%=      5-min Rain = 0
KCL2 100851Z 26005KT M01/M05 A3036 RMK A01 T10111054  RH  073%=      5-min Rain = 0
KCL2 100852Z 27004KT M01/M05 A3036 RMK A01 T10111054  RH  073%=      5-min Rain = 0
KCL2 100853Z 27004KT M01/M05 A3036 RMK A01 T10101053  RH  073%=      5-min Rain = 0
KCL2 100854Z 27004KT M01/M05 A3036 RMK A01 T10101053  RH  073%=      5-min Rain = 0
KCL2 100855Z 27004KT M01/M05 A3036 RMK A01 T10101053  RH  072%=      5-min Rain = 0
KCL2 100856Z 27004KT M01/M05 A3036 RMK A01 T10101053  RH  072%=      5-min Rain = 0
KCL2 100857Z 26004KT M01/M05 A3036 RMK A01 T10091053  RH  072%=      5-min Rain = 0
KCL2 100858Z 26004KT M01/M05 A3035 RMK A01 T10091053  RH  072%=      5-min Rain = 0
KCL2 100859Z 26005KT M01/M05 A3035 RMK A01 T10091054  RH  071%=      5-min Rain = 0
KCL2 100900Z 25004KT M01/M05 A3035 RMK A01 T10081054  RH  071%=      5-min Rain = 0
KCL2 100901Z 25005KT M01/M05 A3035 RMK A01 T10071054  RH  070%=      5-min Rain = 0
KCL2 100902Z 25005KT M01/M06 A3035 RMK A01 T10071055  RH  070%=      5-min Rain = 0
KCL2 100903Z 25006KT M01/M06 A3035 RMK A01 T10081055  RH  070%=      5-min Rain = 0
KCL2 100904Z 26006KT M01/M06 A3035 RMK A01 T10091055  RH  071%=      5-min Rain = 0
KCL2 100905Z 25006KT M01/M06 A3035 RMK A01 T10111056  RH  071%=      5-min Rain = 0
KCL2 100906Z 26006KT M01/M06 A3035 RMK A01 T10121056  RH  072%=      5-min Rain = 0
KCL2 100907Z 25006KT M01/M06 A3035 RMK A01 T10131056  RH  073%=      5-min Rain = 0
KCL2 100908Z 26005KT M01/M06 A3035 RMK A01 T10131055  RH  073%=      5-min Rain = 0
KCL2 100909Z 25005KT M01/M06 A3035 RMK A01 T10131056  RH  073%=      5-min Rain = 0
KCL2 100910Z 25006KT M01/M06 A3035 RMK A01 T10131056  RH  073%=      5-min Rain = 0
KCL2 100911Z 25006KT M01/M06 A3035 RMK A01 T10131056  RH  073%=      5-min Rain = 0
KCL2 100912Z 25006KT M01/M06 A3035 RMK A01 T10131056  RH  073%=      5-min Rain = 0
KCL2 100913Z 26006KT M01/M06 A3035 RMK A01 T10131055  RH  073%=      5-min Rain = 0
KCL2 100914Z 26006KT M01/M06 A3035 RMK A01 T10141055  RH  073%=      5-min Rain = 0
KCL2 100915Z 26006KT M01/M06 A3035 RMK A01 T10141055  RH  073%=      5-min Rain = 0
KCL2 100916Z 26006KT M01/M06 A3035 RMK A01 T10141055  RH  073%=      5-min Rain = 0
KCL2 100917Z 26006KT M01/M06 A3035 RMK A01 T10141055  RH  073%=      5-min Rain = 0
KCL2 100918Z 26006KT M01/M06 A3035 RMK A01 T10141055  RH  073%=      5-min Rain = 0
KCL2 100919Z 26006KT M01/M06 A3035 RMK A01 T10141055  RH  073%=      5-min Rain = 0
KCL2 100920Z 26005KT M01/M06 A3035 RMK A01 T10141056  RH  073%=      5-min Rain = 0
KCL2 100921Z 26005KT M01/M06 A3035 RMK A01 T10141056  RH  073%=      5-min Rain = 0
KCL2 100922Z 26005KT M01/M06 A3035 RMK A01 T10131056  RH  072%=      5-min Rain = 0
KCL2 100923Z 26005KT M01/M06 A3035 RMK A01 T10121057  RH  071%=      5-min Rain = 0
KCL2 100924Z 27005KT M01/M06 A3035 RMK A01 T10111057  RH  071%=      5-min Rain = 0
KCL2 100925Z 27005KT M01/M06 A3035 RMK A01 T10101057  RH  070%=      5-min Rain = 0
KCL2 100926Z 27005KT M01/M06 A3035 RMK A01 T10101058  RH  070%=      5-min Rain = 0
KCL2 100927Z 27005KT M01/M06 A3035 RMK A01 T10091058  RH  069%=      5-min Rain = 0
KCL2 100928Z 27005KT M01/M06 A3035 RMK A01 T10091059  RH  069%=      5-min Rain = 0
KCL2 100929Z 27005KT M01/M06 A3035 RMK A01 T10091058  RH  069%=      5-min Rain = 0
KCL2 100930Z 27005KT M01/M06 A3035 RMK A01 T10091058  RH  070%=      5-min Rain = 0
KCL2 100931Z 27005KT M01/M06 A3035 RMK A01 T10101057  RH  070%=      5-min Rain = 0
KCL2 100932Z 27005KT M01/M06 A3035 RMK A01 T10101056  RH  071%=      5-min Rain = 0
KCL2 100933Z 27005KT M01/M06 A3035 RMK A01 T10111057  RH  071%=      5-min Rain = 0
KCL2 100934Z 27005KT M01/M06 A3035 RMK A01 T10111058  RH  070%=      5-min Rain = 0
KCL2 100935Z 27005KT M01/M06 A3035 RMK A01 T10111058  RH  070%=      5-min Rain = 0
KCL2 100936Z 27005KT M01/M06 A3035 RMK A01 T10101058  RH  070%=      5-min Rain = 0
KCL2 100937Z 28005KT M01/M06 A3035 RMK A01 T10091059  RH  069%=      5-min Rain = 0
KCL2 100938Z 28005KT M01/M06 A3035 RMK A01 T10091059  RH  069%=      5-min Rain = 0
KCL2 100939Z 28005KT M01/M06 A3035 RMK A01 T10081059  RH  068%=      5-min Rain = 0
KCL2 100940Z 28005KT M01/M06 A3035 RMK A01 T10081060  RH  068%=      5-min Rain = 0
KCL2 100941Z 27005KT M01/M06 A3035 RMK A01 T10081060  RH  068%=      5-min Rain = 0
KCL2 100942Z 28005KT M01/M06 A3035 RMK A01 T10091060  RH  068%=      5-min Rain = 0
KCL2 100943Z 27005KT M01/M06 A3035 RMK A01 T10091060  RH  068%=      5-min Rain = 0
KCL2 100944Z 28005KT M01/M06 A3035 RMK A01 T10091060  RH  068%=      5-min Rain = 0
KCL2 100945Z 28005KT M01/M06 A3035 RMK A01 T10091060  RH  068%=      5-min Rain = 0
KCL2 100946Z 28005KT M01/M06 A3035 RMK A01 T10091060  RH  068%=      5-min Rain = 0
KCL2 100947Z 28005KT M01/M06 A3035 RMK A01 T10091060  RH  068%=      5-min Rain = 0
KCL2 100948Z 28005KT M01/M06 A3035 RMK A01 T10081060  RH  068%=      5-min Rain = 0
KCL2 100949Z 28005KT M01/M06 A3035 RMK A01 T10071060  RH  068%=      5-min Rain = 0
KCL2 100950Z 28005KT M01/M06 A3035 RMK A01 T10071060  RH  067%=      5-min Rain = 0
KCL2 100951Z 28005KT M01/M06 A3035 RMK A01 T10071060  RH  067%=      5-min Rain = 0
KCL2 100952Z 28005KT M01/M06 A3035 RMK A01 T10071061  RH  067%=      5-min Rain = 0
KCL2 100953Z 28005KT M01/M06 A3035 RMK A01 T10071060  RH  067%=      5-min Rain = 0
KCL2 100954Z 28005KT M01/M06 A3035 RMK A01 T10071061  RH  067%=      5-min Rain = 0
KCL2 100955Z 28005KT M01/M06 A3035 RMK A01 T10071061  RH  067%=      5-min Rain = 0
KCL2 100956Z 28005KT M01/M06 A3035 RMK A01 T10071061  RH  067%=      5-min Rain = 0
KCL2 100957Z 28005KT M01/M06 A3034 RMK A01 T10071061  RH  067%=      5-min Rain = 0
KCL2 100958Z 28005KT M01/M06 A3034 RMK A01 T10061061  RH  067%=      5-min Rain = 0
KCL2 100959Z 28005KT M01/M06 A3034 RMK A01 T10061061  RH  067%=      5-min Rain = 0
KCL2 101000Z 28005KT M01/M06 A3034 RMK A01 T10061061  RH  066%=      5-min Rain = 0
KCL2 101001Z 27005KT M01/M06 A3034 RMK A01 T10061061  RH  066%=      5-min Rain = 0
KCL2 101002Z 27005KT M01/M06 A3034 RMK A01 T10061061  RH  066%=      5-min Rain = 0
KCL2 101003Z 27005KT M01/M06 A3034 RMK A01 T10061061  RH  066%=      5-min Rain = 0
KCL2 101004Z 27004KT M01/M06 A3034 RMK A01 T10061061  RH  066%=      5-min Rain = 0
KCL2 101005Z 27004KT M01/M06 A3034 RMK A01 T10061061  RH  066%=      5-min Rain = 0
KCL2 101006Z 27004KT M01/M06 A3034 RMK A01 T10071061  RH  067%=      5-min Rain = 0
KCL2 101007Z 27004KT M01/M06 A3034 RMK A01 T10071061  RH  067%=      5-min Rain = 0
KCL2 101008Z 27004KT M01/M06 A3034 RMK A01 T10071061  RH  067%=      5-min Rain = 0
KCL2 101009Z 27004KT M01/M06 A3034 RMK A01 T10071061  RH  067%=      5-min Rain = 0
KCL2 101010Z 27005KT M01/M06 A3034 RMK A01 T10061061  RH  067%=      5-min Rain = 0
KCL2 101011Z 27005KT M01/M06 A3034 RMK A01 T10061061  RH  066%=      5-min Rain = 0
KCL2 101012Z 27005KT M01/M06 A3034 RMK A01 T10051061  RH  066%=      5-min Rain = 0
KCL2 101013Z 26005KT M01/M06 A3034 RMK A01 T10051061  RH  065%=      5-min Rain = 0
KCL2 101014Z 26005KT M00/M06 A3034 RMK A01 T10041062  RH  065%=      5-min Rain = 0
KCL2 101015Z 26005KT M00/M06 A3034 RMK A01 T10041062  RH  065%=      5-min Rain = 0
KCL2 101016Z 27005KT M00/M06 A3034 RMK A01 T10041062  RH  065%=      5-min Rain = 0
KCL2 101017Z 27005KT M00/M06 A3034 RMK A01 T10041061  RH  065%=      5-min Rain = 0
KCL2 101018Z 27004KT M00/M06 A3034 RMK A01 T10041062  RH  065%=      5-min Rain = 0
KCL2 101019Z 27004KT M00/M06 A3034 RMK A01 T10031062  RH  065%=      5-min Rain = 0
KCL2 101020Z 27004KT M00/M06 A3034 RMK A01 T10031061  RH  065%=      5-min Rain = 0
KCL2 101021Z 27004KT M00/M06 A3034 RMK A01 T10031061  RH  065%=      5-min Rain = 0
KCL2 101022Z 27004KT M00/M06 A3034 RMK A01 T10031062  RH  065%=      5-min Rain = 0
KCL2 101023Z 27004KT M00/M06 A3034 RMK A01 T10031062  RH  065%=      5-min Rain = 0
KCL2 101024Z 27004KT M00/M06 A3034 RMK A01 T10031061  RH  065%=      5-min Rain = 0
KCL2 101025Z 27004KT M00/M06 A3034 RMK A01 T10031061  RH  065%=      5-min Rain = 0
KCL2 101026Z 27004KT M00/M06 A3034 RMK A01 T10031061  RH  065%=      5-min Rain = 0
KCL2 101027Z 27004KT M00/M06 A3034 RMK A01 T10031061  RH  065%=      5-min Rain = 0
KCL2 101028Z 27004KT M00/M06 A3034 RMK A01 T10031062  RH  065%=      5-min Rain = 0
KCL2 101029Z 27005KT M00/M06 A3034 RMK A01 T10031062  RH  065%=      5-min Rain = 0
KCL2 101030Z 27005KT M00/M06 A3034 RMK A01 T10031062  RH  064%=      5-min Rain = 0
KCL2 101031Z 27005KT M00/M06 A3034 RMK A01 T10031062  RH  064%=      5-min Rain = 0
KCL2 101032Z 27005KT M00/M06 A3034 RMK A01 T10031062  RH  064%=      5-min Rain = 0
KCL2 101033Z 28005KT M00/M06 A3034 RMK A01 T10031062  RH  064%=      5-min Rain = 0
KCL2 101034Z 28005KT M00/M06 A3034 RMK A01 T10031062  RH  064%=      5-min Rain = 0
KCL2 101035Z 28005KT M00/M06 A3034 RMK A01 T10021062  RH  064%=      5-min Rain = 0
KCL2 101036Z 28005KT M00/M06 A3034 RMK A01 T10021061  RH  064%=      5-min Rain = 0
KCL2 101037Z 28005KT M00/M06 A3034 RMK A01 T10021062  RH  064%=      5-min Rain = 0
KCL2 101038Z 28005KT M00/M06 A3034 RMK A01 T10021062  RH  064%=      5-min Rain = 0
KCL2 101039Z 28005KT M00/M06 A3033 RMK A01 T10011061  RH  064%=      5-min Rain = 0
KCL2 101040Z 28005KT M00/M06 A3033 RMK A01 T10011061  RH  064%=      5-min Rain = 0
KCL2 101041Z 28005KT M00/M06 A3033 RMK A01 T10011061  RH  064%=      5-min Rain = 0
KCL2 101042Z 27005KT M00/M06 A3033 RMK A01 T10011061  RH  064%=      5-min Rain = 0
KCL2 101043Z 27005KT M00/M06 A3033 RMK A01 T10011061  RH  064%=      5-min Rain = 0
KCL2 101044Z 27005KT M00/M06 A3033 RMK A01 T10011061  RH  064%=      5-min Rain = 0
KCL2 101045Z 27005KT M00/M06 A3033 RMK A01 T10011061  RH  064%=      5-min Rain = 0
KCL2 101046Z 27005KT M00/M06 A3033 RMK A01 T10021062  RH  064%=      5-min Rain = 0
KCL2 101047Z 27005KT M00/M06 A3033 RMK A01 T10031061  RH  065%=      5-min Rain = 0
KCL2 101048Z 27005KT M00/M06 A3033 RMK A01 T10041060  RH  066%=      5-min Rain = 0
KCL2 101049Z 27005KT M01/M06 A3033 RMK A01 T10051061  RH  066%=      5-min Rain = 0
KCL2 101050Z 27005KT M01/M06 A3033 RMK A01 T10051060  RH  066%=      5-min Rain = 0
KCL2 101051Z 28005KT M01/M06 A3033 RMK A01 T10061061  RH  067%=      5-min Rain = 0
KCL2 101052Z 28005KT M01/M06 A3033 RMK A01 T10071060  RH  067%=      5-min Rain = 0
KCL2 101053Z 27005KT M01/M06 A3033 RMK A01 T10071060  RH  067%=      5-min Rain = 0
KCL2 101054Z 27005KT M01/M06 A3033 RMK A01 T10081060  RH  068%=      5-min Rain = 0
KCL2 101055Z 27005KT M01/M06 A3033 RMK A01 T10081060  RH  068%=      5-min Rain = 0
KCL2 101056Z 27005KT M01/M06 A3033 RMK A01 T10061059  RH  068%=      5-min Rain = 0
KCL2 101057Z 27005KT M01/M06 A3033 RMK A01 T10051058  RH  067%=      5-min Rain = 0
KCL2 101058Z 27005KT M00/M06 A3033 RMK A01 T10041058  RH  067%=      5-min Rain = 0
KCL2 101059Z 27005KT M00/M06 A3033 RMK A01 T10031057  RH  067%=      5-min Rain = 0
KCL2 101100Z 27005KT M00/M06 A3033 RMK A01 T10021058  RH  066%=      5-min Rain = 0
KCL2 101101Z 27005KT M00/M06 A3033 RMK A01 T10031058  RH  066%=      5-min Rain = 0
KCL2 101102Z 27005KT M00/M06 A3033 RMK A01 T10041058  RH  067%=      5-min Rain = 0
KCL2 101103Z 27005KT M00/M06 A3033 RMK A01 T10041058  RH  067%=      5-min Rain = 0
KCL2 101104Z 27005KT M00/M06 A3034 RMK A01 T10041058  RH  067%=      5-min Rain = 0
KCL2 101105Z 27005KT M00/M06 A3034 RMK A01 T10041058  RH  067%=      5-min Rain = 0
KCL2 101106Z 27005KT M00/M06 A3034 RMK A01 T10031057  RH  067%=      5-min Rain = 0
KCL2 101107Z 27005KT M00/M06 A3034 RMK A01 T10031058  RH  066%=      5-min Rain = 0
KCL2 101108Z 27005KT M00/M06 A3034 RMK A01 T10021058  RH  066%=      5-min Rain = 0
KCL2 101109Z 27005KT M00/M06 A3034 RMK A01 T10021058  RH  066%=      5-min Rain = 0
KCL2 101110Z 28005KT M00/M06 A3034 RMK A01 T10021059  RH  065%=      5-min Rain = 0
KCL2 101111Z 28005KT M00/M06 A3034 RMK A01 T10021060  RH  065%=      5-min Rain = 0
KCL2 101112Z 28005KT M00/M06 A3034 RMK A01 T10021060  RH  065%=      5-min Rain = 0
KCL2 101113Z 28005KT M00/M06 A3034 RMK A01 T10021059  RH  065%=      5-min Rain = 0
KCL2 101114Z 28005KT M00/M06 A3034 RMK A01 T10021059  RH  065%=      5-min Rain = 0
KCL2 101115Z 28005KT M00/M06 A3034 RMK A01 T10021059  RH  065%=      5-min Rain = 0
KCL2 101116Z 28005KT M00/M06 A3034 RMK A01 T10011058  RH  065%=      5-min Rain = 0
KCL2 101117Z 28005KT M00/M06 A3034 RMK A01 T10011058  RH  065%=      5-min Rain = 0
KCL2 101118Z 28005KT M00/M06 A3034 RMK A01 T10011058  RH  065%=      5-min Rain = 0
KCL2 101119Z 28005KT M00/M06 A3034 RMK A01 T10011058  RH  065%=      5-min Rain = 0
KCL2 101120Z 28005KT M00/M06 A3034 RMK A01 T10011059  RH  065%=      5-min Rain = 0
KCL2 101121Z 29005KT M00/M06 A3034 RMK A01 T10021059  RH  065%=      5-min Rain = 0
KCL2 101122Z 29005KT M00/M06 A3034 RMK A01 T10021058  RH  066%=      5-min Rain = 0
KCL2 101123Z 29005KT M00/M06 A3034 RMK A01 T10021058  RH  066%=      5-min Rain = 0
KCL2 101124Z 29005KT M00/M06 A3034 RMK A01 T10021058  RH  066%=      5-min Rain = 0
KCL2 101125Z 29005KT M00/M06 A3034 RMK A01 T10031058  RH  066%=      5-min Rain = 0
KCL2 101126Z 29005KT M00/M06 A3034 RMK A01 T10031057  RH  067%=      5-min Rain = 0
KCL2 101127Z 29004KT M00/M06 A3034 RMK A01 T10031057  RH  067%=      5-min Rain = 0
KCL2 101128Z 29004KT M00/M06 A3034 RMK A01 T10041058  RH  067%=      5-min Rain = 0
KCL2 101129Z 29004KT M00/M06 A3034 RMK A01 T10041058  RH  067%=      5-min Rain = 0
KCL2 101130Z 29003KT M00/M06 A3034 RMK A01 T10041057  RH  067%=      5-min Rain = 0
KCL2 101131Z 29003KT M01/M06 A3034 RMK A01 T10061058  RH  068%=      5-min Rain = 0
KCL2 101132Z 29003KT M01/M06 A3034 RMK A01 T10071058  RH  068%=      5-min Rain = 0
KCL2 101133Z 29003KT M01/M06 A3034 RMK A01 T10081058  RH  069%=      5-min Rain = 0
KCL2 101134Z 29003KT M01/M06 A3034 RMK A01 T10081058  RH  069%=      5-min Rain = 0
KCL2 101135Z 29003KT M01/M06 A3034 RMK A01 T10091058  RH  069%=      5-min Rain = 0
KCL2 101136Z 29002KT M01/M06 A3034 RMK A01 T10081057  RH  070%=      5-min Rain = 0
KCL2 101137Z 30002KT M01/M06 A3034 RMK A01 T10091057  RH  070%=      5-min Rain = 0
KCL2 101138Z 30002KT M01/M06 A3034 RMK A01 T10091057  RH  070%=      5-min Rain = 0
KCL2 101139Z 30002KT M01/M06 A3034 RMK A01 T10081057  RH  070%=      5-min Rain = 0
KCL2 101140Z 30002KT M01/M06 A3034 RMK A01 T10081057  RH  069%=      5-min Rain = 0
KCL2 101141Z 30002KT M01/M06 A3034 RMK A01 T10071056  RH  069%=      5-min Rain = 0
KCL2 101142Z 30002KT M01/M06 A3034 RMK A01 T10061056  RH  069%=      5-min Rain = 0
KCL2 101143Z 30002KT M01/M06 A3034 RMK A01 T10051056  RH  069%=      5-min Rain = 0
KCL2 101144Z 29002KT M01/M06 A3034 RMK A01 T10051056  RH  069%=      5-min Rain = 0
KCL2 101145Z 29003KT M01/M06 A3034 RMK A01 T10051056  RH  069%=      5-min Rain = 0
KCL2 101146Z 29003KT M01/M06 A3034 RMK A01 T10051055  RH  069%=      5-min Rain = 0
KCL2 101147Z 30003KT M01/M06 A3034 RMK A01 T10051055  RH  069%=      5-min Rain = 0
KCL2 101148Z 30003KT M00/M06 A3034 RMK A01 T10041055  RH  068%=      5-min Rain = 0
KCL2 101149Z 30003KT M00/M06 A3034 RMK A01 T10041055  RH  068%=      5-min Rain = 0
KCL2 101150Z 30003KT M00/M05 A3034 RMK A01 T10021054  RH  068%=      5-min Rain = 0
KCL2 101151Z 31003KT 00/05 A3034 RMK A01 T00000-54  RH  067%=      5-min Rain = 0
KCL2 101152Z 31003KT 00/M05 A3034 RMK A01 T00011054  RH  067%=      5-min Rain = 0
KCL2 101153Z 31003KT 00/M05 A3034 RMK A01 T00021054  RH  066%=      5-min Rain = 0
KCL2 101154Z 31003KT 00/M05 A3034 RMK A01 T00021054  RH  066%=      5-min Rain = 0
KCL2 101155Z 31003KT 00/M05 A3035 RMK A01 T00021054  RH  066%=      5-min Rain = 0
KCL2 101156Z 31003KT 00/M05 A3035 RMK A01 T00021054  RH  066%=      5-min Rain = 0
KCL2 101157Z 31003KT 00/M05 A3035 RMK A01 T00021053  RH  066%=      5-min Rain = 0
KCL2 101158Z 31003KT 00/M05 A3035 RMK A01 T00021052  RH  067%=      5-min Rain = 0
KCL2 101159Z 31003KT 00/M05 A3035 RMK A01 T00021052  RH  067%=      5-min Rain = 0
KCL2 101200Z 31003KT 00/M05 A3035 RMK A01 T00021050  RH  068%=      5-min Rain = 0
KCL2 101201Z 31003KT 00/M05 A3035 RMK A01 T00021051  RH  068%=      5-min Rain = 0
KCL2 101202Z 31003KT 00/M05 A3034 RMK A01 T00011051  RH  068%=      5-min Rain = 0
KCL2 101203Z 31004KT 00/M05 A3034 RMK A01 T00011051  RH  068%=      5-min Rain = 0
KCL2 101204Z 31004KT 00/M05 A3035 RMK A01 T00011051  RH  068%=      5-min Rain = 0
KCL2 101205Z 31004KT 00/M05 A3035 RMK A01 T00011050  RH  068%=      5-min Rain = 0
KCL2 101206Z 31004KT 00/M05 A3035 RMK A01 T00021050  RH  068%=      5-min Rain = 0
KCL2 101207Z 31004KT 00/M05 A3035 RMK A01 T00021050  RH  068%=      5-min Rain = 0
KCL2 101208Z 31004KT 00/M05 A3035 RMK A01 T00031050  RH  068%=      5-min Rain = 0
KCL2 101209Z 31004KT 00/M05 A3035 RMK A01 T00041050  RH  067%=      5-min Rain = 0
KCL2 101210Z 31004KT 01/M05 A3035 RMK A01 T00051050  RH  067%=      5-min Rain = 0
KCL2 101211Z 31003KT 01/M05 A3035 RMK A01 T00051050  RH  067%=      5-min Rain = 0
KCL2 101212Z 31004KT 00/M05 A3035 RMK A01 T00041050  RH  067%=      5-min Rain = 0
KCL2 101213Z 31004KT 00/M05 A3035 RMK A01 T00041051  RH  067%=      5-min Rain = 0
KCL2 101214Z 31004KT 00/M05 A3035 RMK A01 T00041051  RH  067%=      5-min Rain = 0
KCL2 101215Z 31004KT 00/M05 A3035 RMK A01 T00041051  RH  067%=      5-min Rain = 0
KCL2 101216Z 31004KT 00/M05 A3035 RMK A01 T00041051  RH  067%=      5-min Rain = 0
KCL2 101217Z 31004KT 00/M05 A3035 RMK A01 T00031051  RH  067%=      5-min Rain = 0
KCL2 101218Z 31004KT 00/M05 A3035 RMK A01 T00021051  RH  067%=      5-min Rain = 0
KCL2 101219Z 31003KT 00/M05 A3035 RMK A01 T00011051  RH  068%=      5-min Rain = 0
KCL2 101220Z 32003KT 00/M05 A3035 RMK A01 T00011051  RH  068%=      5-min Rain = 0
KCL2 101221Z 32003KT M00/M05 A3035 RMK A01 T10011051  RH  069%=      5-min Rain = 0
KCL2 101222Z 32003KT M00/M05 A3035 RMK A01 T10021049  RH  070%=      5-min Rain = 0
KCL2 101223Z 32003KT M00/M05 A3035 RMK A01 T10031045  RH  073%=      5-min Rain = 0
KCL2 101224Z 32003KT M00/M04 A3035 RMK A01 T10041044  RH  074%=      5-min Rain = 0
KCL2 101225Z 32003KT M00/M05 A3035 RMK A01 T10041045  RH  074%=      5-min Rain = 0
KCL2 101226Z 31003KT M01/M05 A3035 RMK A01 T10051046  RH  074%=      5-min Rain = 0
KCL2 101227Z 31003KT M00/M05 A3035 RMK A01 T10041047  RH  073%=      5-min Rain = 0
KCL2 101228Z 31004KT M00/M05 A3035 RMK A01 T10031047  RH  073%=      5-min Rain = 0
KCL2 101229Z 31004KT M00/M05 A3035 RMK A01 T10031046  RH  072%=      5-min Rain = 0
KCL2 101230Z 31004KT M00/M05 A3035 RMK A01 T10021046  RH  072%=      5-min Rain = 0
KCL2 101231Z 31003KT M00/M05 A3035 RMK A01 T10021046  RH  072%=      5-min Rain = 0
KCL2 101232Z 31003KT M00/M05 A3035 RMK A01 T10011047  RH  071%=      5-min Rain = 0
KCL2 101233Z 32003KT 00/05 A3035 RMK A01 T00-00-47  RH  071%=      5-min Rain = 0
KCL2 101234Z 31003KT 00/05 A3035 RMK A01 T00000-47  RH  070%=      5-min Rain = 0
KCL2 101235Z 31003KT 00/05 A3035 RMK A01 T00000-48  RH  070%=      5-min Rain = 0
KCL2 101236Z 31003KT 00/05 A3035 RMK A01 T00000-48  RH  070%=      5-min Rain = 0
KCL2 101237Z 31003KT 00/05 A3035 RMK A01 T00000-49  RH  070%=      5-min Rain = 0
KCL2 101238Z 31003KT 00/05 A3035 RMK A01 T00-00-49  RH  070%=      5-min Rain = 0
KCL2 101239Z 31003KT M00/M05 A3035 RMK A01 T10011050  RH  070%=      5-min Rain = 0
KCL2 101240Z 31003KT M00/M05 A3035 RMK A01 T10021050  RH  070%=      5-min Rain = 0
KCL2 101241Z 31003KT M00/M05 A3035 RMK A01 T10021051  RH  070%=      5-min Rain = 0
KCL2 101242Z 31003KT M00/M05 A3035 RMK A01 T10021051  RH  070%=      5-min Rain = 0
KCL2 101243Z 31003KT M00/M05 A3036 RMK A01 T10021051  RH  070%=      5-min Rain = 0
KCL2 101244Z 31003KT M00/M05 A3036 RMK A01 T10021051  RH  069%=      5-min Rain = 0
KCL2 101245Z 31003KT M00/M05 A3036 RMK A01 T10021051  RH  069%=      5-min Rain = 0
KCL2 101246Z 31003KT M00/M05 A3036 RMK A01 T10021051  RH  069%=      5-min Rain = 0
KCL2 101247Z 31003KT M00/M05 A3036 RMK A01 T10021051  RH  070%=      5-min Rain = 0
KCL2 101248Z 30003KT M00/M05 A3036 RMK A01 T10021051  RH  070%=      5-min Rain = 0
KCL2 101249Z 30003KT M00/M05 A3036 RMK A01 T10031051  RH  070%=      5-min Rain = 0
KCL2 101250Z 30003KT M00/M05 A3036 RMK A01 T10031051  RH  070%=      5-min Rain = 0
KCL2 101251Z 31004KT M00/M05 A3036 RMK A01 T10031051  RH  070%=      5-min Rain = 0
KCL2 101252Z 31004KT M00/M05 A3036 RMK A01 T10041051  RH  070%=      5-min Rain = 0
KCL2 101253Z 31004KT M00/M05 A3036 RMK A01 T10041050  RH  071%=      5-min Rain = 0
KCL2 101254Z 30004KT M00/M05 A3036 RMK A01 T10041051  RH  071%=      5-min Rain = 0
KCL2 101255Z 30004KT M00/M05 A3036 RMK A01 T10041051  RH  071%=      5-min Rain = 0
KCL2 101256Z 30004KT M00/M05 A3036 RMK A01 T10041050  RH  071%=      5-min Rain = 0
KCL2 101257Z 30004KT M00/M05 A3036 RMK A01 T10041050  RH  071%=      5-min Rain = 0
KCL2 101258Z 31004KT M00/M05 A3036 RMK A01 T10031050  RH  071%=      5-min Rain = 0
KCL2 101259Z 31004KT M00/M05 A3036 RMK A01 T10031050  RH  071%=      5-min Rain = 0
KCL2 101300Z 30004KT M00/M05 A3036 RMK A01 T10031049  RH  071%=      5-min Rain = 0
KCL2 101301Z 31004KT M00/M05 A3036 RMK A01 T10021049  RH  071%=      5-min Rain = 0
KCL2 101302Z 31004KT M00/M05 A3036 RMK A01 T10031049  RH  071%=      5-min Rain = 0
KCL2 101303Z 31004KT M00/M05 A3036 RMK A01 T10031050  RH  071%=      5-min Rain = 0
KCL2 101304Z 30004KT M00/M05 A3036 RMK A01 T10031050  RH  071%=      5-min Rain = 0
KCL2 101305Z 30004KT M00/M05 A3036 RMK A01 T10031050  RH  071%=      5-min Rain = 0
KCL2 101306Z 30004KT M00/M05 A3036 RMK A01 T10031050  RH  071%=      5-min Rain = 0
KCL2 101307Z 30004KT M00/M05 A3036 RMK A01 T10041050  RH  071%=      5-min Rain = 0
KCL2 101308Z 30004KT M00/M05 A3037 RMK A01 T10041050  RH  071%=      5-min Rain = 0
KCL2 101309Z 30004KT M01/M05 A3037 RMK A01 T10051051  RH  071%=      5-min Rain = 0
KCL2 101310Z 30004KT M01/M05 A3037 RMK A01 T10061050  RH  072%=      5-min Rain = 0
KCL2 101311Z 30004KT M01/M05 A3037 RMK A01 T10061050  RH  072%=      5-min Rain = 0
KCL2 101312Z 30004KT M01/M05 A3037 RMK A01 T10061050  RH  072%=      5-min Rain = 0
KCL2 101313Z 30004KT M01/M05 A3037 RMK A01 T10071050  RH  072%=      5-min Rain = 0
KCL2 101314Z 30004KT M01/M05 A3037 RMK A01 T10071050  RH  072%=      5-min Rain = 0
KCL2 101315Z 30004KT M01/M05 A3037 RMK A01 T10071050  RH  072%=      5-min Rain = 0
KCL2 101316Z 30004KT M01/M05 A3037 RMK A01 T10071050  RH  072%=      5-min Rain = 0
KCL2 101317Z 30004KT M01/M05 A3037 RMK A01 T10081051  RH  073%=      5-min Rain = 0
KCL2 101318Z 30004KT M01/M05 A3037 RMK A01 T10081051  RH  073%=      5-min Rain = 0
KCL2 101319Z 30004KT M01/M05 A3037 RMK A01 T10071050  RH  073%=      5-min Rain = 0
KCL2 101320Z 30004KT M01/M05 A3037 RMK A01 T10051048  RH  073%=      5-min Rain = 0
KCL2 101321Z 31004KT M00/M05 A3037 RMK A01 T10031047  RH  072%=      5-min Rain = 0
KCL2 101322Z 31004KT M00/M05 A3037 RMK A01 T10011047  RH  071%=      5-min Rain = 0
KCL2 101323Z 31004KT 00/M05 A3037 RMK A01 T00011047  RH  070%=      5-min Rain = 0
KCL2 101324Z 31004KT 00/M05 A3037 RMK A01 T00021047  RH  069%=      5-min Rain = 0
KCL2 101325Z 31004KT 00/M05 A3037 RMK A01 T00031047  RH  069%=      5-min Rain = 0
KCL2 101326Z 31004KT 00/M05 A3037 RMK A01 T00041047  RH  069%=      5-min Rain = 0
KCL2 101327Z 31004KT 00/M05 A3037 RMK A01 T00021049  RH  068%=      5-min Rain = 0
KCL2 101328Z 31004KT 00/05 A3037 RMK A01 T00000-50  RH  069%=      5-min Rain = 0
KCL2 101329Z 31004KT M00/M05 A3037 RMK A01 T10011049  RH  070%=      5-min Rain = 0
KCL2 101330Z 31004KT M00/M05 A3037 RMK A01 T10011048  RH  071%=      5-min Rain = 0
KCL2 101331Z 31003KT M00/M05 A3037 RMK A01 T10021047  RH  072%=      5-min Rain = 0
KCL2 101332Z 31003KT M00/M05 A3037 RMK A01 T10021045  RH  072%=      5-min Rain = 0
KCL2 101333Z 30003KT M00/M05 A3037 RMK A01 T10021045  RH  073%=      5-min Rain = 0
KCL2 101334Z 30003KT M00/M05 A3037 RMK A01 T10021045  RH  073%=      5-min Rain = 0
KCL2 101335Z 29003KT M00/M05 A3037 RMK A01 T10011045  RH  072%=      5-min Rain = 0
KCL2 101336Z 29003KT M00/M05 A3037 RMK A01 T10011045  RH  072%=      5-min Rain = 0
KCL2 101337Z 29004KT M00/M05 A3037 RMK A01 T10011045  RH  072%=      5-min Rain = 0
KCL2 101338Z 29004KT M00/M05 A3037 RMK A01 T10011046  RH  072%=      5-min Rain = 0
KCL2 101339Z 29004KT M00/M05 A3037 RMK A01 T10011047  RH  071%=      5-min Rain = 0
KCL2 101340Z 29004KT M00/M05 A3037 RMK A01 T10011047  RH  071%=      5-min Rain = 0
KCL2 101341Z 29004KT 00/05 A3037 RMK A01 T00-00-47  RH  071%=      5-min Rain = 0
KCL2 101342Z 29004KT 00/05 A3037 RMK A01 T00-00-47  RH  071%=      5-min Rain = 0
KCL2 101343Z 29004KT 00/05 A3037 RMK A01 T00-00-48  RH  070%=      5-min Rain = 0
KCL2 101344Z 29004KT 00/05 A3037 RMK A01 T00000-48  RH  070%=      5-min Rain = 0
KCL2 101345Z 29004KT 00/M05 A3037 RMK A01 T00011048  RH  070%=      5-min Rain = 0
KCL2 101346Z 29004KT 00/M05 A3037 RMK A01 T00011048  RH  070%=      5-min Rain = 0
KCL2 101347Z 29004KT 00/05 A3037 RMK A01 T00000-49  RH  070%=      5-min Rain = 0
KCL2 101348Z 28004KT 00/05 A3037 RMK A01 T00000-49  RH  069%=      5-min Rain = 0
KCL2 101349Z 28004KT 00/05 A3037 RMK A01 T00-00-50  RH  070%=      5-min Rain = 0
KCL2 101350Z 28004KT M00/M05 A3037 RMK A01 T10011049  RH  070%=      5-min Rain = 0
KCL2 101351Z 28004KT M00/M05 A3037 RMK A01 T10011049  RH  070%=      5-min Rain = 0
KCL2 101352Z 28004KT M00/M05 A3037 RMK A01 T10011049  RH  070%=      5-min Rain = 0
KCL2 101353Z 28004KT M00/M05 A3037 RMK A01 T10011049  RH  070%=      5-min Rain = 0
KCL2 101354Z 27004KT M00/M05 A3037 RMK A01 T10011049  RH  070%=      5-min Rain = 0
KCL2 101355Z 27004KT 00/05 A3037 RMK A01 T00-00-48  RH  070%=      5-min Rain = 0
KCL2 101356Z 27004KT 00/05 A3037 RMK A01 T00-00-49  RH  070%=      5-min Rain = 0
KCL2 101357Z 27004KT 00/05 A3037 RMK A01 T00000-48  RH  070%=      5-min Rain = 0
KCL2 101358Z 27003KT 00/M05 A3037 RMK A01 T00011048  RH  069%=      5-min Rain = 0
KCL2 101359Z 27003KT 00/M05 A3037 RMK A01 T00011048  RH  069%=      5-min Rain = 0
KCL2 101400Z 27003KT 00/M05 A3037 RMK A01 T00021049  RH  069%=      5-min Rain = 0
KCL2 101401Z 28003KT 00/M05 A3037 RMK A01 T00021048  RH  069%=      5-min Rain = 0
KCL2 101402Z 28003KT 00/M05 A3037 RMK A01 T00031048  RH  068%=      5-min Rain = 0
KCL2 101403Z 28003KT 00/M05 A3037 RMK A01 T00041048  RH  068%=      5-min Rain = 0
KCL2 101404Z 29003KT 01/M05 A3037 RMK A01 T00051047  RH  068%=      5-min Rain = 0
KCL2 101405Z 29003KT 01/M05 A3037 RMK A01 T00051048  RH  068%=      5-min Rain = 0
KCL2 101406Z 29003KT 01/M05 A3037 RMK A01 T00061048  RH  067%=      5-min Rain = 0
KCL2 101407Z 29003KT 01/M05 A3037 RMK A01 T00071047  RH  067%=      5-min Rain = 0
KCL2 101408Z 30003KT 01/M04 A3037 RMK A01 T00071044  RH  069%=      5-min Rain = 0
KCL2 101409Z 30003KT 01/M04 A3037 RMK A01 T00071043  RH  069%=      5-min Rain = 0
KCL2 101410Z 30003KT 01/M04 A3037 RMK A01 T00071043  RH  069%=      5-min Rain = 0
KCL2 101411Z 29003KT 01/M04 A3037 RMK A01 T00081042  RH  069%=      5-min Rain = 0
KCL2 101412Z 29003KT 01/M04 A3037 RMK A01 T00081041  RH  070%=      5-min Rain = 0
KCL2 101413Z 29003KT 01/M04 A3037 RMK A01 T00091041  RH  069%=      5-min Rain = 0
KCL2 101414Z 28004KT 01/M04 A3037 RMK A01 T00091042  RH  069%=      5-min Rain = 0
KCL2 101415Z 28003KT 01/M04 A3037 RMK A01 T00101041  RH  069%=      5-min Rain = 0
KCL2 101416Z 28004KT 01/M04 A3037 RMK A01 T00111040  RH  069%=      5-min Rain = 0
KCL2 101417Z 28003KT 01/M04 A3037 RMK A01 T00111039  RH  069%=      5-min Rain = 0
KCL2 101418Z 28003KT 01/M04 A3037 RMK A01 T00111039  RH  069%=      5-min Rain = 0
KCL2 101419Z 28003KT 01/M04 A3037 RMK A01 T00121037  RH  070%=      5-min Rain = 0
KCL2 101420Z 28003KT 01/M04 A3037 RMK A01 T00121035  RH  071%=      5-min Rain = 0
KCL2 101421Z 28003KT 01/M03 A3037 RMK A01 T00121033  RH  072%=      5-min Rain = 0
KCL2 101422Z 29003KT 01/M03 A3037 RMK A01 T00131032  RH  072%=      5-min Rain = 0
KCL2 101423Z 29003KT 01/M03 A3037 RMK A01 T00131030  RH  073%=      5-min Rain = 0
KCL2 101424Z 29003KT 01/M03 A3037 RMK A01 T00131029  RH  074%=      5-min Rain = 0
KCL2 101425Z 29004KT 01/M03 A3037 RMK A01 T00141028  RH  074%=      5-min Rain = 0
KCL2 101426Z 29004KT 01/M03 A3037 RMK A01 T00141027  RH  074%=      5-min Rain = 0
KCL2 101427Z 29004KT 02/M03 A3037 RMK A01 T00151027  RH  073%=      5-min Rain = 0
KCL2 101428Z 28004KT 02/M03 A3037 RMK A01 T00161027  RH  073%=      5-min Rain = 0
KCL2 101429Z 28004KT 02/M03 A3037 RMK A01 T00161026  RH  073%=      5-min Rain = 0
KCL2 101430Z 29004KT 02/M03 A3037 RMK A01 T00171025  RH  074%=      5-min Rain = 0
KCL2 101431Z 29004KT 02/M02 A3037 RMK A01 T00171024  RH  074%=      5-min Rain = 0
KCL2 101432Z 29004KT 02/M03 A3037 RMK A01 T00181025  RH  073%=      5-min Rain = 0
KCL2 101433Z 29004KT 02/M03 A3037 RMK A01 T00191025  RH  073%=      5-min Rain = 0
KCL2 101434Z 29004KT 02/M02 A3037 RMK A01 T00201023  RH  073%=      5-min Rain = 0
KCL2 101435Z 29004KT 02/M02 A3037 RMK A01 T00201022  RH  074%=      5-min Rain = 0
KCL2 101436Z 29004KT 02/M02 A3037 RMK A01 T00201022  RH  073%=      5-min Rain = 0
KCL2 101437Z 29004KT 02/M02 A3037 RMK A01 T00211023  RH  073%=      5-min Rain = 0
KCL2 101438Z 29004KT 02/M02 A3037 RMK A01 T00211022  RH  073%=      5-min Rain = 0
KCL2 101439Z 28004KT 02/M02 A3037 RMK A01 T00211022  RH  073%=      5-min Rain = 0
KCL2 101440Z 28004KT 02/M02 A3037 RMK A01 T00221022  RH  073%=      5-min Rain = 0
KCL2 101441Z 29004KT 02/M02 A3037 RMK A01 T00221021  RH  073%=      5-min Rain = 0
KCL2 101442Z 29004KT 02/M02 A3037 RMK A01 T00231020  RH  073%=      5-min Rain = 0
KCL2 101443Z 29004KT 02/M02 A3037 RMK A01 T00231019  RH  073%=      5-min Rain = 0
KCL2 101444Z 29003KT 02/M02 A3037 RMK A01 T00241018  RH  074%=      5-min Rain = 0
KCL2 101445Z 29004KT 03/M02 A3038 RMK A01 T00251018  RH  073%=      5-min Rain = 0
KCL2 101446Z 29004KT 03/M02 A3038 RMK A01 T00251019  RH  073%=      5-min Rain = 0
KCL2 101447Z 29004KT 03/M02 A3038 RMK A01 T00261019  RH  072%=      5-min Rain = 0
KCL2 101448Z 29004KT 03/M02 A3038 RMK A01 T00261019  RH  072%=      5-min Rain = 0
KCL2 101449Z 29004KT 03/M02 A3038 RMK A01 T00271019  RH  072%=      5-min Rain = 0
KCL2 101450Z 29004KT 03/M02 A3038 RMK A01 T00271018  RH  072%=      5-min Rain = 0
KCL2 101451Z 28004KT 03/M02 A3038 RMK A01 T00281017  RH  072%=      5-min Rain = 0
KCL2 101452Z 28004KT 03/M02 A3038 RMK A01 T00281017  RH  072%=      5-min Rain = 0
KCL2 101453Z 28004KT 03/M02 A3038 RMK A01 T00291018  RH  071%=      5-min Rain = 0
KCL2 101454Z 28003KT 03/M01 A3038 RMK A01 T00291014  RH  073%=      5-min Rain = 0
KCL2 101455Z 28004KT 03/M01 A3038 RMK A01 T00301012  RH  074%=      5-min Rain = 0
KCL2 101456Z 28003KT 03/M02 A3038 RMK A01 T00311015  RH  072%=      5-min Rain = 0
KCL2 101457Z 28003KT 03/M02 A3038 RMK A01 T00321015  RH  071%=      5-min Rain = 0
KCL2 101458Z 28003KT 03/M01 A3038 RMK A01 T00331014  RH  071%=      5-min Rain = 0
KCL2 101459Z 29004KT 03/M01 A3038 RMK A01 T00341013  RH  072%=      5-min Rain = 0
KCL2 101500Z 29004KT 03/M02 A3038 RMK A01 T00341015  RH  070%=      5-min Rain = 0
KCL2 101501Z 29004KT 04/M01 A3038 RMK A01 T00351013  RH  071%=      5-min Rain = 0
KCL2 101502Z 28004KT 04/M01 A3038 RMK A01 T00361013  RH  070%=      5-min Rain = 0
KCL2 101503Z 29004KT 04/M01 A3038 RMK A01 T00371011  RH  071%=      5-min Rain = 0
KCL2 101504Z 29005KT 04/M01 A3038 RMK A01 T00371013  RH  070%=      5-min Rain = 0
KCL2 101505Z 27004KT 04/M01 A3038 RMK A01 T00381013  RH  070%=      5-min Rain = 0
KCL2 101506Z 28004KT 04/M01 A3038 RMK A01 T00381012  RH  069%=      5-min Rain = 0
KCL2 101507Z 28004KT 04/M01 A3038 RMK A01 T00391014  RH  068%=      5-min Rain = 0
KCL2 101508Z 29004KT 04/M02 A3039 RMK A01 T00401015  RH  068%=      5-min Rain = 0
KCL2 101509Z 28005KT 04/M01 A3039 RMK A01 T00401013  RH  068%=      5-min Rain = 0
KCL2 101510Z 29005KT 04/M01 A3039 RMK A01 T00411012  RH  069%=      5-min Rain = 0
KCL2 101511Z 29005KT 04/M01 A3039 RMK A01 T00421011  RH  069%=      5-min Rain = 0
KCL2 101512Z 29005KT 04/M01 A3039 RMK A01 T00421014  RH  067%=      5-min Rain = 0
KCL2 101513Z 29005KT 04/M01 A3039 RMK A01 T00421013  RH  067%=      5-min Rain = 0
KCL2 101514Z 29006KT 04/M01 A3039 RMK A01 T00431013  RH  067%=      5-min Rain = 0
KCL2 101515Z 29005KT 04/M01 A3039 RMK A01 T00431013  RH  067%=      5-min Rain = 0
KCL2 101516Z 29007KT 04/M02 A3039 RMK A01 T00431015  RH  066%=      5-min Rain = 0
KCL2 101517Z 29005KT 04/M02 A3039 RMK A01 T00441018  RH  064%=      5-min Rain = 0
KCL2 101518Z 29005KT 04/M01 A3039 RMK A01 T00441011  RH  067%=      5-min Rain = 0
KCL2 101519Z 29006KT 04/M01 A3039 RMK A01 T00441012  RH  067%=      5-min Rain = 0
KCL2 101520Z 29006KT 05/M01 A3039 RMK A01 T00451010  RH  067%=      5-min Rain = 0
KCL2 101521Z 29006KT 05/M01 A3039 RMK A01 T00451012  RH  066%=      5-min Rain = 0
KCL2 101522Z 29007KT 05/M01 A3039 RMK A01 T00451012  RH  066%=      5-min Rain = 0
KCL2 101523Z 29007KT 05/M02 A3039 RMK A01 T00461015  RH  065%=      5-min Rain = 0
KCL2 101524Z 29007KT 05/M02 A3039 RMK A01 T00451017  RH  064%=      5-min Rain = 0
KCL2 101525Z 28008KT 05/M02 A3039 RMK A01 T00451015  RH  065%=      5-min Rain = 0
KCL2 101526Z 29007KT 04/M02 A3039 RMK A01 T00441016  RH  065%=      5-min Rain = 0
KCL2 101527Z 28007KT 05/M02 A304 RMK A01 T00451015  RH  065%=      5-min Rain = 0
KCL2 101528Z 29007KT 05/M02 A304 RMK A01 T00451016  RH  065%=      5-min Rain = 0
KCL2 101529Z 29007KT 05/M02 A304 RMK A01 T00451017  RH  064%=      5-min Rain = 0
KCL2 101530Z 29006KT 05/M02 A304 RMK A01 T00451016  RH  064%=      5-min Rain = 0
KCL2 101531Z 29006KT 05/M01 A304 RMK A01 T00461013  RH  065%=      5-min Rain = 0
KCL2 101532Z 29006KT 05/M01 A304 RMK A01 T00471014  RH  065%=      5-min Rain = 0
KCL2 101533Z 29006KT 05/M01 A304 RMK A01 T00471014  RH  065%=      5-min Rain = 0
KCL2 101534Z 29006KT 05/M01 A304 RMK A01 T00471014  RH  064%=      5-min Rain = 0
KCL2 101535Z 29006KT 05/M01 A304 RMK A01 T00471014  RH  064%=      5-min Rain = 0
KCL2 101536Z 29007KT 05/M01 A304 RMK A01 T00481012  RH  065%=      5-min Rain = 0
KCL2 101537Z 29006KT 05/M02 A304 RMK A01 T00481015  RH  064%=      5-min Rain = 0
KCL2 101538Z 29007KT 05/M01 A304 RMK A01 T00491012  RH  065%=      5-min Rain = 0
KCL2 101539Z 29007KT 05/M01 A304 RMK A01 T00491014  RH  064%=      5-min Rain = 0
KCL2 101540Z 29006KT 05/M01 A304 RMK A01 T00491014  RH  064%=      5-min Rain = 0
KCL2 101541Z 29005KT 05/M01 A304 RMK A01 T00491012  RH  065%=      5-min Rain = 0
KCL2 101542Z 29006KT 05/M01 A304 RMK A01 T00501011  RH  065%=      5-min Rain = 0
KCL2 101543Z 30005KT 05/M01 A304 RMK A01 T00521006  RH  066%=      5-min Rain = 0
KCL2 101544Z 30005KT 05/M01 A304 RMK A01 T00541007  RH  065%=      5-min Rain = 0
KCL2 101545Z 31007KT 05/M01 A304 RMK A01 T00541009  RH  063%=      5-min Rain = 0
KCL2 101546Z 30006KT 05/M01 A304 RMK A01 T00541012  RH  062%=      5-min Rain = 0
KCL2 101547Z 30007KT 05/M02 A304 RMK A01 T00541015  RH  061%=      5-min Rain = 0
KCL2 101548Z 30007KT 05/M02 A304 RMK A01 T00531017  RH  061%=      5-min Rain = 0
KCL2 101549Z 29006KT 05/M02 A304 RMK A01 T00521017  RH  061%=      5-min Rain = 0
KCL2 101550Z 30006KT 05/M02 A304 RMK A01 T00531015  RH  062%=      5-min Rain = 0
KCL2 101551Z 31007KT 05/M02 A304 RMK A01 T00531015  RH  062%=      5-min Rain = 0
KCL2 101552Z 30006KT 05/M02 A304 RMK A01 T00531015  RH  061%=      5-min Rain = 0
KCL2 101553Z 30006KT 05/M02 A304 RMK A01 T00541015  RH  061%=      5-min Rain = 0
KCL2 101554Z 29007KT 06/M01 A304 RMK A01 T00551014  RH  061%=      5-min Rain = 0
KCL2 101555Z 29006KT 06/M01 A304 RMK A01 T00561013  RH  061%=      5-min Rain = 0
KCL2 101556Z 30007KT 06/M02 A304 RMK A01 T00561016  RH  060%=      5-min Rain = 0
KCL2 101557Z 29006KT 06/M02 A304 RMK A01 T00551017  RH  059%=      5-min Rain = 0
KCL2 101558Z 30006KT 06/M02 A304 RMK A01 T00551015  RH  061%=      5-min Rain = 0
KCL2 101559Z 31008KT 06/M01 A304 RMK A01 T00571009  RH  062%=      5-min Rain = 0
KCL2 101600Z 31008KT 06/M01 A304 RMK A01 T00591011  RH  061%=      5-min Rain = 0
KCL2 101601Z 31006KT 06/M01 A304 RMK A01 T00601011  RH  060%=      5-min Rain = 0
KCL2 101602Z 31006KT 06/M01 A304 RMK A01 T00611011  RH  060%=      5-min Rain = 0
KCL2 101603Z 31005KT 06/M01 A304 RMK A01 T00611013  RH  059%=      5-min Rain = 0
KCL2 101604Z 31006KT 06/M01 A304 RMK A01 T00611012  RH  059%=      5-min Rain = 0
KCL2 101605Z 29004KT 06/M01 A304 RMK A01 T00621011  RH  059%=      5-min Rain = 0
KCL2 101606Z 29006KT 06/M01 A304 RMK A01 T00641007  RH  060%=      5-min Rain = 0
KCL2 101607Z 31006KT 07/M01 A304 RMK A01 T00661009  RH  059%=      5-min Rain = 0
KCL2 101608Z 31007KT 07/M01 A304 RMK A01 T00661009  RH  058%=      5-min Rain = 0
KCL2 101609Z 31007KT 07/M01 A304 RMK A01 T00671013  RH  057%=      5-min Rain = 0
KCL2 101610Z 30007KT 07/M01 A304 RMK A01 T00661013  RH  057%=      5-min Rain = 0
KCL2 101611Z 31007KT 07/M01 A304 RMK A01 T00651013  RH  057%=      5-min Rain = 0
KCL2 101612Z 30008KT 07/M01 A304 RMK A01 T00651012  RH  058%=      5-min Rain = 0
KCL2 101613Z 30006KT 07/M01 A304 RMK A01 T00661012  RH  057%=      5-min Rain = 0
KCL2 101614Z 29008KT 07/M01 A304 RMK A01 T00661014  RH  056%=      5-min Rain = 0
KCL2 101615Z 30009KT 07/M01 A304 RMK A01 T00661013  RH  057%=      5-min Rain = 0
KCL2 101616Z 29008KT 07/M01 A304 RMK A01 T00661012  RH  058%=      5-min Rain = 0
KCL2 101617Z 29008KT 07/M01 A304 RMK A01 T00671012  RH  057%=      5-min Rain = 0
KCL2 101618Z 30009KT 07/M01 A304 RMK A01 T00671014  RH  056%=      5-min Rain = 0
KCL2 101619Z 30009KT 07/M01 A304 RMK A01 T00671013  RH  057%=      5-min Rain = 0
KCL2 101620Z 30010KT 07/M01 A304 RMK A01 T00681012  RH  057%=      5-min Rain = 0
KCL2 101621Z 30009KT 07/M01 A304 RMK A01 T00681013  RH  056%=      5-min Rain = 0
KCL2 101622Z 31008KT 07/M01 A304 RMK A01 T00691012  RH  056%=      5-min Rain = 0
KCL2 101623Z 30008KT 07/M01 A304 RMK A01 T00701011  RH  056%=      5-min Rain = 0
KCL2 101624Z 30008KT 07/M01 A304 RMK A01 T00701011  RH  056%=      5-min Rain = 0
KCL2 101625Z 30007KT 07/M01 A304 RMK A01 T00711010  RH  057%=      5-min Rain = 0
KCL2 101626Z 28008KT 07/M01 A304 RMK A01 T00711010  RH  056%=      5-min Rain = 0
KCL2 101627Z 27007KT 07/M01 A304 RMK A01 T00711009  RH  057%=      5-min Rain = 0
KCL2 101628Z 28008KT 07/M01 A304 RMK A01 T00721008  RH  057%=      5-min Rain = 0
KCL2 101629Z 28008KT 07/M01 A304 RMK A01 T00721010  RH  056%=      5-min Rain = 0
KCL2 101630Z 28007KT 07/M01 A304 RMK A01 T00721011  RH  056%=      5-min Rain = 0
KCL2 101631Z 29008KT 07/M01 A304 RMK A01 T00721010  RH  056%=      5-min Rain = 0
KCL2 101632Z 28007KT 07/M01 A304 RMK A01 T00711013  RH  055%=      5-min Rain = 0
KCL2 101633Z 28008KT 07/M01 A304 RMK A01 T00711009  RH  057%=      5-min Rain = 0
KCL2 101634Z 29008KT 07/M01 A304 RMK A01 T00731009  RH  056%=      5-min Rain = 0
KCL2 101635Z 29007KT 07/M01 A304 RMK A01 T00731010  RH  056%=      5-min Rain = 0
KCL2 101636Z 29006KT 07/M01 A304 RMK A01 T00741008  RH  056%=      5-min Rain = 0
KCL2 101637Z 28008KT 08/M01 A3039 RMK A01 T00751008  RH  056%=      5-min Rain = 0
KCL2 101638Z 29008KT 08/M01 A3039 RMK A01 T00751010  RH  055%=      5-min Rain = 0
KCL2 101639Z 29008KT 08/M01 A304 RMK A01 T00751009  RH  055%=      5-min Rain = 0
KCL2 101640Z 29008KT 08/M01 A3039 RMK A01 T00751010  RH  055%=      5-min Rain = 0
KCL2 101641Z 28007KT 07/M01 A304 RMK A01 T00741009  RH  056%=      5-min Rain = 0
KCL2 101642Z 28007KT 07/M01 A304 RMK A01 T00741009  RH  056%=      5-min Rain = 0
KCL2 101643Z 29007KT 07/M01 A304 RMK A01 T00741010  RH  055%=      5-min Rain = 0
KCL2 101644Z 28008KT 07/M01 A304 RMK A01 T00741010  RH  055%=      5-min Rain = 0
KCL2 101645Z 28007KT 07/M01 A3039 RMK A01 T00741009  RH  056%=      5-min Rain = 0
KCL2 101646Z 28007KT 08/M01 A3039 RMK A01 T00761007  RH  056%=      5-min Rain = 0
KCL2 101647Z 28007KT 08/M01 A3039 RMK A01 T00771008  RH  055%=      5-min Rain = 0
KCL2 101648Z 28007KT 08/M01 A3039 RMK A01 T00771008  RH  055%=      5-min Rain = 0
KCL2 101649Z 29006KT 08/M01 A3039 RMK A01 T00771010  RH  054%=      5-min Rain = 0
KCL2 101650Z 29007KT 08/M01 A3039 RMK A01 T00761009  RH  055%=      5-min Rain = 0
KCL2 101651Z 28007KT 08/M01 A3039 RMK A01 T00761011  RH  054%=      5-min Rain = 0
KCL2 101652Z 28007KT 08/M01 A3039 RMK A01 T00761009  RH  055%=      5-min Rain = 0
KCL2 101653Z 29007KT 08/M01 A3039 RMK A01 T00781011  RH  054%=      5-min Rain = 0
KCL2 101654Z 29007KT 08/M01 A3039 RMK A01 T00771013  RH  053%=      5-min Rain = 0
KCL2 101655Z 30007KT 08/M01 A3039 RMK A01 T00761012  RH  054%=      5-min Rain = 0
KCL2 101656Z 29006KT 08/M01 A3039 RMK A01 T00781011  RH  053%=      5-min Rain = 0
KCL2 101657Z 27006KT 08/M01 A3039 RMK A01 T00801007  RH  054%=      5-min Rain = 0
KCL2 101658Z 26006KT 08/M00 A3039 RMK A01 T00811004  RH  055%=      5-min Rain = 0
KCL2 101659Z 27008KT 08/M01 A3039 RMK A01 T00821008  RH  053%=      5-min Rain = 0
KCL2 101700Z 27007KT 08/M01 A3039 RMK A01 T00801010  RH  053%=      5-min Rain = 0
KCL2 101701Z 28008KT 08/M01 A3039 RMK A01 T00781011  RH  053%=      5-min Rain = 0
KCL2 101702Z 29008KT 08/M01 A3039 RMK A01 T00781012  RH  053%=      5-min Rain = 0
KCL2 101703Z 28007KT 08/M01 A3039 RMK A01 T00781012  RH  053%=      5-min Rain = 0
KCL2 101704Z 29007KT 08/M01 A3038 RMK A01 T00801011  RH  053%=      5-min Rain = 0
KCL2 101705Z 30009KT 08/M01 A3038 RMK A01 T00811012  RH  052%=      5-min Rain = 0
KCL2 101706Z 30009KT 08/M01 A3038 RMK A01 T00811013  RH  051%=      5-min Rain = 0
KCL2 101707Z 29008KT 08/M01 A3038 RMK A01 T00811011  RH  052%=      5-min Rain = 0
KCL2 101708Z 30009KT 08/M01 A3038 RMK A01 T00821012  RH  052%=      5-min Rain = 0
KCL2 101709Z 29009KT 08/M01 A3038 RMK A01 T00821014  RH  051%=      5-min Rain = 0
KCL2 101710Z 30008KT 08/M01 A3038 RMK A01 T00801014  RH  051%=      5-min Rain = 0
KCL2 101711Z 30006KT 08/M01 A3038 RMK A01 T00791012  RH  052%=      5-min Rain = 0
KCL2 101712Z 31007KT 08/M01 A3038 RMK A01 T00821008  RH  053%=      5-min Rain = 0
KCL2 101713Z 30007KT 09/M01 A3038 RMK A01 T00851007  RH  052%=      5-min Rain = 0
KCL2 101714Z 31006KT 09/M01 A3038 RMK A01 T00861010  RH  051%=      5-min Rain = 0
KCL2 101715Z 31007KT 09/M01 A3038 RMK A01 T00861009  RH  051%=      5-min Rain = 0
KCL2 101716Z 31008KT 09/M01 A3038 RMK A01 T00871007  RH  052%=      5-min Rain = 0
KCL2 101717Z 30007KT 09/M01 A3038 RMK A01 T00871009  RH  051%=      5-min Rain = 0
KCL2 101718Z 30005KT 09/M01 A3038 RMK A01 T00871005  RH  052%=      5-min Rain = 0
KCL2 101719Z 30006KT 09/M00 A3038 RMK A01 T00891004  RH  052%=      5-min Rain = 0
KCL2 101720Z 30008KT 09/M00 A3038 RMK A01 T00921004  RH  051%=      5-min Rain = 0
KCL2 101721Z 31007KT 09/M01 A3038 RMK A01 T00911010  RH  049%=      5-min Rain = 0
KCL2 101722Z 30006KT 09/M01 A3038 RMK A01 T00891007  RH  051%=      5-min Rain = 0
KCL2 101723Z 29009KT 09/M01 A3038 RMK A01 T00891008  RH  050%=      5-min Rain = 0
KCL2 101724Z 30008KT 09/M01 A3038 RMK A01 T00871010  RH  050%=      5-min Rain = 0
KCL2 101725Z 29007KT 09/M01 A3038 RMK A01 T00871008  RH  051%=      5-min Rain = 0
KCL2 101726Z 30008KT 09/M01 A3038 RMK A01 T00891007  RH  051%=      5-min Rain = 0
KCL2 101727Z 30007KT 09/M01 A3038 RMK A01 T00881008  RH  051%=      5-min Rain = 0
KCL2 101728Z 30007KT 09/M01 A3038 RMK A01 T00881009  RH  051%=      5-min Rain = 0
KCL2 101729Z 30006KT 09/M01 A3038 RMK A01 T00871009  RH  051%=      5-min Rain = 0
KCL2 101730Z 29007KT 09/M01 A3038 RMK A01 T00881007  RH  051%=      5-min Rain = 0
KCL2 101731Z 29006KT 09/M01 A3038 RMK A01 T00891008  RH  051%=      5-min Rain = 0
KCL2 101732Z 30006KT 09/M01 A3038 RMK A01 T00891007  RH  051%=      5-min Rain = 0
KCL2 101733Z 28007KT 09/M01 A3038 RMK A01 T00901005  RH  052%=      5-min Rain = 0
KCL2 101734Z 28007KT 09/M01 A3038 RMK A01 T00911008  RH  050%=      5-min Rain = 0
KCL2 101735Z 27006KT 09/M01 A3038 RMK A01 T00901006  RH  051%=      5-min Rain = 0
KCL2 101736Z 28007KT 09/M01 A3037 RMK A01 T00911006  RH  051%=      5-min Rain = 0
KCL2 101737Z 29007KT 09/M01 A3037 RMK A01 T00911008  RH  050%=      5-min Rain = 0
KCL2 101738Z 28006KT 09/M01 A3037 RMK A01 T00901006  RH  051%=      5-min Rain = 0
KCL2 101739Z 30006KT 09/M01 A3037 RMK A01 T00921006  RH  050%=      5-min Rain = 0
KCL2 101740Z 30006KT 09/M01 A3037 RMK A01 T00931006  RH  050%=      5-min Rain = 0
KCL2 101741Z 30007KT 09/M01 A3037 RMK A01 T00941007  RH  049%=      5-min Rain = 0
KCL2 101742Z 30005KT 10/M01 A3037 RMK A01 T00961011  RH  047%=      5-min Rain = 0
KCL2 101743Z 27005KT 10/M01 A3037 RMK A01 T00971005  RH  049%=      5-min Rain = 0
KCL2 101744Z 29006KT 10/M01 A3037 RMK A01 T00981005  RH  048%=      5-min Rain = 0
KCL2 101745Z 29005KT 10/M01 A3037 RMK A01 T00981006  RH  048%=      5-min Rain = 0
KCL2 101746Z 28007KT 10/M01 A3037 RMK A01 T00981008  RH  048%=      5-min Rain = 0
KCL2 101747Z 28009KT 10/M01 A3037 RMK A01 T00961012  RH  047%=      5-min Rain = 0
KCL2 101748Z 30007KT 10/M02 A3037 RMK A01 T00961015  RH  046%=      5-min Rain = 0
KCL2 101749Z 30005KT 10/M02 A3037 RMK A01 T00951015  RH  046%=      5-min Rain = 0
KCL2 101750Z 30006KT 10/M01 A3037 RMK A01 T00951014  RH  047%=      5-min Rain = 0
KCL2 101751Z 29005KT 10/M01 A3037 RMK A01 T00961010  RH  048%=      5-min Rain = 0
KCL2 101752Z 29008KT 10/M01 A3036 RMK A01 T00971007  RH  048%=      5-min Rain = 0
KCL2 101753Z 29009KT 10/M01 A3036 RMK A01 T00981009  RH  047%=      5-min Rain = 0
KCL2 101754Z 30007KT 10/M01 A3036 RMK A01 T00981008  RH  048%=      5-min Rain = 0
KCL2 101755Z 29006KT 10/M01 A3036 RMK A01 T00991008  RH  047%=      5-min Rain = 0
KCL2 101756Z 28007KT 10/M01 A3036 RMK A01 T01011009  RH  046%=      5-min Rain = 0
KCL2 101757Z 29008KT 10/M01 A3036 RMK A01 T01011010  RH  046%=      5-min Rain = 0
KCL2 101758Z 31006KT 10/M01 A3036 RMK A01 T01021009  RH  046%=      5-min Rain = 0
KCL2 101759Z 31004KT 10/M01 A3036 RMK A01 T01011008  RH  047%=      5-min Rain = 0
KCL2 101800Z 32004KT 10/M00 A3036 RMK A01 T01031001  RH  048%=      5-min Rain = 0
KCL2 101801Z 30006KT 11/M00 A3036 RMK A01 T01071001  RH  047%=      5-min Rain = 0
KCL2 101802Z 28006KT 10/M01 A3036 RMK A01 T01041006  RH  046%=      5-min Rain = 0
KCL2 101803Z 28008KT 10/M01 A3036 RMK A01 T01031006  RH  047%=      5-min Rain = 0
KCL2 101804Z 28006KT 10/M01 A3036 RMK A01 T01021006  RH  047%=      5-min Rain = 0
KCL2 101805Z 27006KT 10/M01 A3036 RMK A01 T01011008  RH  047%=      5-min Rain = 0
KCL2 101806Z 28007KT 10/M01 A3036 RMK A01 T01011007  RH  047%=      5-min Rain = 0
KCL2 101807Z 28009KT 10/M01 A3035 RMK A01 T01011007  RH  047%=      5-min Rain = 0
KCL2 101808Z 29008KT 10/M01 A3035 RMK A01 T01011006  RH  048%=      5-min Rain = 0
KCL2 101809Z 28005KT 10/M01 A3035 RMK A01 T01011006  RH  047%=      5-min Rain = 0
KCL2 101810Z 28004KT 10/M01 A3035 RMK A01 T01011005  RH  048%=      5-min Rain = 0
KCL2 101811Z 29006KT 10/M00 A3035 RMK A01 T01011001  RH  049%=      5-min Rain = 0
KCL2 101812Z 29005KT 10/00 A3035 RMK A01 T010400-0  RH  049%=      5-min Rain = 0
KCL2 101813Z 29006KT 11/M00 A3035 RMK A01 T01051002  RH  048%=      5-min Rain = 0
KCL2 101814Z 27005KT 11/M00 A3035 RMK A01 T01051003  RH  047%=      5-min Rain = 0
KCL2 101815Z 28008KT 11/M00 A3035 RMK A01 T01051004  RH  047%=      5-min Rain = 0
KCL2 101816Z 28007KT 11/M01 A3035 RMK A01 T01051006  RH  046%=      5-min Rain = 0
KCL2 101817Z 28009KT 10/M01 A3035 RMK A01 T01041006  RH  046%=      5-min Rain = 0
KCL2 101818Z 29007KT 10/M01 A3035 RMK A01 T01041010  RH  045%=      5-min Rain = 0
KCL2 101819Z 29006KT 10/M01 A3035 RMK A01 T01021011  RH  045%=      5-min Rain = 0
KCL2 101820Z 29005KT 10/M01 A3035 RMK A01 T01011009  RH  046%=      5-min Rain = 0
KCL2 101821Z 28005KT 10/M01 A3035 RMK A01 T01021008  RH  047%=      5-min Rain = 0
KCL2 101822Z 28007KT 10/M01 A3035 RMK A01 T01041011  RH  045%=      5-min Rain = 0
KCL2 101823Z 29008KT 11/M01 A3035 RMK A01 T01061011  RH  044%=      5-min Rain = 0
KCL2 101824Z 29006KT 11/M01 A3035 RMK A01 T01061012  RH  044%=      5-min Rain = 0
KCL2 101825Z 28006KT 11/M01 A3035 RMK A01 T01061011  RH  044%=      5-min Rain = 0
KCL2 101826Z 28006KT 11/M01 A3035 RMK A01 T01061009  RH  045%=      5-min Rain = 0
KCL2 101827Z 29007KT 11/M00 A3035 RMK A01 T01101003  RH  046%=      5-min Rain = 0
KCL2 101828Z 30006KT 11/M01 A3035 RMK A01 T01111006  RH  044%=      5-min Rain = 0
KCL2 101829Z 33004KT 11/M01 A3035 RMK A01 T01101005  RH  045%=      5-min Rain = 0
KCL2 101830Z 31004KT 11/M01 A3035 RMK A01 T01081005  RH  045%=      5-min Rain = 0
KCL2 101831Z 29006KT 11/M01 A3035 RMK A01 T01081006  RH  045%=      5-min Rain = 0
KCL2 101832Z 30008KT 11/M01 A3035 RMK A01 T01091006  RH  045%=      5-min Rain = 0
KCL2 101833Z 33006KT 11/M01 A3035 RMK A01 T01091005  RH  045%=      5-min Rain = 0
KCL2 101834Z 32005KT 11/M00 A3034 RMK A01 T01091003  RH  046%=      5-min Rain = 0
KCL2 101835Z 27004KT 11/M01 A3034 RMK A01 T01091006  RH  045%=      5-min Rain = 0
KCL2 101836Z 29006KT 11/M00 A3034 RMK A01 T01101003  RH  045%=      5-min Rain = 0
KCL2 101837Z 31006KT 11/M00 A3034 RMK A01 T01141001  RH  045%=      5-min Rain = 0
KCL2 101838Z 28004KT 12/M01 A3034 RMK A01 T01151005  RH  043%=      5-min Rain = 0
KCL2 101839Z 29007KT 12/M01 A3034 RMK A01 T01151006  RH  043%=      5-min Rain = 0
KCL2 101840Z 29007KT 11/M01 A3034 RMK A01 T01141007  RH  043%=      5-min Rain = 0
KCL2 101841Z 29006KT 11/M01 A3034 RMK A01 T01101009  RH  044%=      5-min Rain = 0
KCL2 101842Z 28006KT 11/M01 A3034 RMK A01 T01101006  RH  045%=      5-min Rain = 0
KCL2 101843Z 30006KT 11/M00 A3034 RMK A01 T01131003  RH  045%=      5-min Rain = 0
KCL2 101844Z 28005KT 11/M01 A3034 RMK A01 T01131006  RH  044%=      5-min Rain = 0
KCL2 101845Z 30007KT 11/M01 A3034 RMK A01 T01131007  RH  044%=      5-min Rain = 0
KCL2 101846Z 29006KT 11/M01 A3034 RMK A01 T01121010  RH  043%=      5-min Rain = 0
KCL2 101847Z 30005KT 11/M01 A3034 RMK A01 T01111012  RH  042%=      5-min Rain = 0
KCL2 101848Z 30007KT 11/M01 A3034 RMK A01 T01141007  RH  043%=      5-min Rain = 0
KCL2 101849Z 30008KT 12/M01 A3034 RMK A01 T01161008  RH  042%=      5-min Rain = 0
KCL2 101850Z 31007KT 12/M01 A3034 RMK A01 T01151007  RH  043%=      5-min Rain = 0
KCL2 101851Z 31007KT 12/M01 A3035 RMK A01 T01171006  RH  043%=      5-min Rain = 0
KCL2 101852Z 30006KT 12/M01 A3035 RMK A01 T01171006  RH  042%=      5-min Rain = 0
KCL2 101853Z 28006KT 12/M01 A3034 RMK A01 T01161005  RH  043%=      5-min Rain = 0
KCL2 101854Z 29006KT 11/M01 A3034 RMK A01 T01141006  RH  043%=      5-min Rain = 0
KCL2 101855Z 29005KT 11/M01 A3034 RMK A01 T01121005  RH  044%=      5-min Rain = 0
KCL2 101856Z 31006KT 12/00 A3034 RMK A01 T01150000  RH  045%=      5-min Rain = 0
KCL2 101857Z 32007KT 12/M01 A3034 RMK A01 T01181006  RH  042%=      5-min Rain = 0
KCL2 101858Z 31008KT 12/M01 A3034 RMK A01 T01181010  RH  041%=      5-min Rain = 0
KCL2 101859Z 31007KT 12/M01 A3034 RMK A01 T01181008  RH  042%=      5-min Rain = 0
KCL2 101900Z 32008KT 12/M01 A3034 RMK A01 T01171008  RH  042%=      5-min Rain = 0
KCL2 101901Z 33008KT 12/M01 A3034 RMK A01 T01171009  RH  042%=      5-min Rain = 0
KCL2 101902Z 33007KT 12/M01 A3034 RMK A01 T01161007  RH  042%=      5-min Rain = 0
KCL2 101903Z 31009KT 12/M01 A3034 RMK A01 T01181005  RH  043%=      5-min Rain = 0
KCL2 101904Z 32008KT 12/M01 A3034 RMK A01 T01191007  RH  042%=      5-min Rain = 0
KCL2 101905Z 31005KT 12/M01 A3034 RMK A01 T01191009  RH  041%=      5-min Rain = 0
KCL2 101906Z 30006KT 12/M01 A3034 RMK A01 T01171012  RH  041%=      5-min Rain = 0
KCL2 101907Z 31005KT 12/M01 A3034 RMK A01 T01171011  RH  041%=      5-min Rain = 0
KCL2 101908Z 32006KT 12/M01 A3034 RMK A01 T01181010  RH  041%=      5-min Rain = 0
KCL2 101909Z 32006KT 12/M01 A3033 RMK A01 T01211006  RH  041%=      5-min Rain = 0
KCL2 101910Z 32004KT 12/M01 A3033 RMK A01 T01211009  RH  040%=      5-min Rain = 0
KCL2 101911Z 33008KT 12/M01 A3033 RMK A01 T01201008  RH  041%=      5-min Rain = 0
KCL2 101912Z 32009KT 12/M01 A3033 RMK A01 T01201007  RH  042%=      5-min Rain = 0
KCL2 101913Z 32007KT 12/M01 A3033 RMK A01 T01211005  RH  042%=      5-min Rain = 0
KCL2 101914Z 32007KT 12/M01 A3033 RMK A01 T01211007  RH  041%=      5-min Rain = 0
KCL2 101915Z 33007KT 12/M01 A3033 RMK A01 T01191007  RH  042%=      5-min Rain = 0
KCL2 101916Z 33006KT 12/M00 A3033 RMK A01 T01201003  RH  043%=      5-min Rain = 0
KCL2 101917Z 31007KT 12/M00 A3033 RMK A01 T01221004  RH  042%=      5-min Rain = 0
KCL2 101918Z 31006KT 12/M01 A3033 RMK A01 T01201012  RH  040%=      5-min Rain = 0
KCL2 101919Z 32006KT 12/M01 A3033 RMK A01 T01201006  RH  042%=      5-min Rain = 0
KCL2 101920Z 32005KT 12/M01 A3033 RMK A01 T01221007  RH  041%=      5-min Rain = 0
KCL2 101921Z 31005KT 12/M01 A3033 RMK A01 T01211008  RH  041%=      5-min Rain = 0
KCL2 101922Z 31007KT 12/M01 A3033 RMK A01 T01221006  RH  041%=      5-min Rain = 0
KCL2 101923Z 30005KT 12/M01 A3033 RMK A01 T01221009  RH  040%=      5-min Rain = 0
KCL2 101924Z 31004KT 12/M01 A3033 RMK A01 T01201012  RH  040%=      5-min Rain = 0
KCL2 101925Z 31004KT 12/M01 A3033 RMK A01 T01181013  RH  040%=      5-min Rain = 0
KCL2 101926Z 30005KT 12/M01 A3033 RMK A01 T01181008  RH  042%=      5-min Rain = 0
KCL2 101927Z 29006KT 12/M01 A3033 RMK A01 T01201008  RH  041%=      5-min Rain = 0
KCL2 101928Z 31006KT 12/M01 A3033 RMK A01 T01191010  RH  041%=      5-min Rain = 0
KCL2 101929Z 32002KT 12/M01 A3033 RMK A01 T01191011  RH  040%=      5-min Rain = 0
KCL2 101930Z 30005KT 12/M01 A3033 RMK A01 T01191012  RH  040%=      5-min Rain = 0
KCL2 101931Z 28007KT 12/M01 A3033 RMK A01 T01221009  RH  040%=      5-min Rain = 0
KCL2 101932Z 29006KT 12/M01 A3033 RMK A01 T01241011  RH  039%=      5-min Rain = 0
KCL2 101933Z 28004KT 12/M01 A3033 RMK A01 T01221013  RH  039%=      5-min Rain = 0
KCL2 101934Z 28004KT 12/M01 A3033 RMK A01 T01221012  RH  040%=      5-min Rain = 0
KCL2 101935Z 28005KT 12/M01 A3033 RMK A01 T01221012  RH  039%=      5-min Rain = 0
KCL2 101936Z 29005KT 12/M01 A3033 RMK A01 T01211010  RH  040%=      5-min Rain = 0
KCL2 101937Z 30007KT 12/M01 A3033 RMK A01 T01221007  RH  041%=      5-min Rain = 0
KCL2 101938Z 30006KT 12/M01 A3033 RMK A01 T01221012  RH  039%=      5-min Rain = 0
KCL2 101939Z 30005KT 12/M01 A3033 RMK A01 T01211013  RH  040%=      5-min Rain = 0
KCL2 101940Z 30005KT 12/M01 A3033 RMK A01 T01221013  RH  039%=      5-min Rain = 0
KCL2 101941Z 29005KT 12/M01 A3033 RMK A01 T01221014  RH  039%=      5-min Rain = 0
KCL2 101942Z 31006KT 12/M01 A3033 RMK A01 T01211013  RH  039%=      5-min Rain = 0
KCL2 101943Z 33004KT 12/M01 A3033 RMK A01 T01191014  RH  040%=      5-min Rain = 0
KCL2 101944Z 34005KT 12/M01 A3033 RMK A01 T01191013  RH  040%=      5-min Rain = 0
KCL2 101945Z 32006KT 12/M01 A3033 RMK A01 T01191011  RH  040%=      5-min Rain = 0
KCL2 101946Z 33004KT 12/M02 A3033 RMK A01 T01191017  RH  039%=      5-min Rain = 0
KCL2 101947Z 33002KT 12/M02 A3033 RMK A01 T01181017  RH  039%=      5-min Rain = 0
KCL2 101948Z 29001KT 12/M01 A3032 RMK A01 T01181014  RH  040%=      5-min Rain = 0
KCL2 101949Z 29001KT 12/M01 A3032 RMK A01 T01181013  RH  040%=      5-min Rain = 0
KCL2 101950Z 29002KT 12/M01 A3032 RMK A01 T01191013  RH  040%=      5-min Rain = 0
KCL2 101951Z 27002KT 12/M01 A3032 RMK A01 T01201012  RH  040%=      5-min Rain = 0
KCL2 101952Z 29004KT 12/M01 A3032 RMK A01 T01221008  RH  040%=      5-min Rain = 0
KCL2 101953Z 27003KT 12/M01 A3032 RMK A01 T01231009  RH  040%=      5-min Rain = 0
KCL2 101954Z 32005KT 12/M01 A3032 RMK A01 T01231008  RH  040%=      5-min Rain = 0
KCL2 101955Z 32004KT 12/M01 A3032 RMK A01 T01241009  RH  040%=      5-min Rain = 0
KCL2 101956Z 32001KT 12/M01 A3032 RMK A01 T01241009  RH  040%=      5-min Rain = 0
KCL2 101957Z 31002KT 12/M01 A3032 RMK A01 T01231009  RH  040%=      5-min Rain = 0
KCL2 101958Z 33004KT 12/M01 A3032 RMK A01 T01231007  RH  041%=      5-min Rain = 0
KCL2 101959Z 34004KT 13/M00 A3032 RMK A01 T01251004  RH  041%=      5-min Rain = 0
KCL2 102000Z 31005KT 12/M01 A3032 RMK A01 T01241007  RH  040%=      5-min Rain = 0
KCL2 102001Z 26004KT 12/M01 A3032 RMK A01 T01241010  RH  040%=      5-min Rain = 0
KCL2 102002Z 28005KT 13/M01 A3032 RMK A01 T01251009  RH  039%=      5-min Rain = 0
KCL2 102003Z 29007KT 13/M01 A3032 RMK A01 T01261008  RH  039%=      5-min Rain = 0
KCL2 102004Z 27005KT 13/M01 A3032 RMK A01 T01251008  RH  040%=      5-min Rain = 0
KCL2 102005Z 26007KT 12/M01 A3032 RMK A01 T01241009  RH  040%=      5-min Rain = 0
KCL2 102006Z 27006KT 12/M01 A3032 RMK A01 T01231010  RH  040%=      5-min Rain = 0
KCL2 102007Z 26006KT 12/M01 A3032 RMK A01 T01221010  RH  040%=      5-min Rain = 0
KCL2 102008Z 27006KT 12/M01 A3032 RMK A01 T01221010  RH  040%=      5-min Rain = 0
KCL2 102009Z 26005KT 12/M01 A3032 RMK A01 T01221011  RH  040%=      5-min Rain = 0
KCL2 102010Z 25003KT 12/M01 A3032 RMK A01 T01211010  RH  040%=      5-min Rain = 0
KCL2 102011Z 26006KT 12/M01 A3032 RMK A01 T01221009  RH  040%=      5-min Rain = 0
KCL2 102012Z 26008KT 12/M01 A3032 RMK A01 T01231012  RH  039%=      5-min Rain = 0
KCL2 102013Z 25006KT 12/M01 A3032 RMK A01 T01241010  RH  040%=      5-min Rain = 0
KCL2 102014Z 25006KT 12/M01 A3032 RMK A01 T01241011  RH  039%=      5-min Rain = 0
KCL2 102015Z 23004KT 12/M01 A3032 RMK A01 T01241011  RH  039%=      5-min Rain = 0
KCL2 102016Z 21003KT 13/M01 A3032 RMK A01 T01251010  RH  039%=      5-min Rain = 0
KCL2 102017Z 22003KT 13/M01 A3032 RMK A01 T01251011  RH  039%=      5-min Rain = 0
KCL2 102018Z 29004KT 13/M01 A3032 RMK A01 T01251009  RH  039%=      5-min Rain = 0
KCL2 102019Z 28005KT 13/M01 A3032 RMK A01 T01271006  RH  040%=      5-min Rain = 0
KCL2 102020Z 28006KT 13/M01 A3032 RMK A01 T01281006  RH  040%=      5-min Rain = 0
KCL2 102021Z 29006KT 13/M01 A3032 RMK A01 T01281009  RH  039%=      5-min Rain = 0
KCL2 102022Z 29002KT 12/M01 A3032 RMK A01 T01241012  RH  039%=      5-min Rain = 0
KCL2 102023Z 22001KT 12/M01 A3032 RMK A01 T01231009  RH  040%=      5-min Rain = 0
KCL2 102024Z 33002KT 12/M01 A3032 RMK A01 T01231006  RH  041%=      5-min Rain = 0
KCL2 102025Z 34001KT 13/M01 A3032 RMK A01 T01251006  RH  040%=      5-min Rain = 0
KCL2 102026Z 28004KT 13/M01 A3032 RMK A01 T01251007  RH  040%=      5-min Rain = 0
KCL2 102027Z 26005KT 13/M01 A3032 RMK A01 T01261009  RH  039%=      5-min Rain = 0
KCL2 102028Z 26007KT 13/M01 A3032 RMK A01 T01281012  RH  038%=      5-min Rain = 0
KCL2 102029Z 26006KT 13/M02 A3032 RMK A01 T01291016  RH  037%=      5-min Rain = 0
KCL2 102030Z 26003KT 13/M02 A3032 RMK A01 T01281016  RH  037%=      5-min Rain = 0
KCL2 102031Z 28006KT 13/M02 A3032 RMK A01 T01271017  RH  037%=      5-min Rain = 0
KCL2 102032Z 30005KT 13/M02 A3032 RMK A01 T01261017  RH  037%=      5-min Rain = 0
KCL2 102033Z 29006KT 13/M01 A3032 RMK A01 T01261014  RH  038%=      5-min Rain = 0
KCL2 102034Z 28005KT 13/M01 A3032 RMK A01 T01271011  RH  038%=      5-min Rain = 0
KCL2 102035Z 28005KT 13/M01 A3032 RMK A01 T01281009  RH  039%=      5-min Rain = 0
KCL2 102036Z 27005KT 13/M01 A3032 RMK A01 T01281010  RH  038%=      5-min Rain = 0
KCL2 102037Z 26005KT 13/M02 A3032 RMK A01 T01261016  RH  037%=      5-min Rain = 0
KCL2 102038Z 26004KT 13/M02 A3032 RMK A01 T01261016  RH  037%=      5-min Rain = 0
KCL2 102039Z 26004KT 13/M02 A3032 RMK A01 T01261015  RH  038%=      5-min Rain = 0
KCL2 102040Z 26006KT 13/M01 A3032 RMK A01 T01261014  RH  038%=      5-min Rain = 0
KCL2 102041Z 29005KT 13/M01 A3032 RMK A01 T01261012  RH  038%=      5-min Rain = 0
KCL2 102042Z 28004KT 13/M01 A3032 RMK A01 T01261014  RH  038%=      5-min Rain = 0
KCL2 102043Z 25003KT 13/M01 A3032 RMK A01 T01251014  RH  038%=      5-min Rain = 0
KCL2 102044Z 26002KT 13/M01 A3032 RMK A01 T01251014  RH  038%=      5-min Rain = 0
KCL2 102045Z 28004KT 13/M01 A3032 RMK A01 T01261012  RH  038%=      5-min Rain = 0
KCL2 102046Z 30006KT 13/M01 A3032 RMK A01 T01281010  RH  038%=      5-min Rain = 0
KCL2 102047Z 29006KT 13/M01 A3032 RMK A01 T01321007  RH  038%=      5-min Rain = 0
KCL2 102048Z 28006KT 13/M01 A3032 RMK A01 T01321013  RH  037%=      5-min Rain = 0
KCL2 102049Z 28004KT 13/M01 A3031 RMK A01 T01291014  RH  037%=      5-min Rain = 0
KCL2 102050Z 27003KT 13/M02 A3032 RMK A01 T01271015  RH  037%=      5-min Rain = 0
KCL2 102051Z 26001KT 13/M02 A3032 RMK A01 T01271016  RH  037%=      5-min Rain = 0
KCL2 102052Z 29005KT 13/M02 A3032 RMK A01 T01261018  RH  037%=      5-min Rain = 0
KCL2 102053Z 30004KT 13/M02 A3032 RMK A01 T01261021  RH  036%=      5-min Rain = 0
KCL2 102054Z 33003KT 12/M02 A3031 RMK A01 T01241021  RH  036%=      5-min Rain = 0
KCL2 102055Z 34003KT 12/M02 A3031 RMK A01 T01231020  RH  037%=      5-min Rain = 0
KCL2 102056Z 33004KT 12/M02 A3031 RMK A01 T01231017  RH  038%=      5-min Rain = 0
KCL2 102057Z 30003KT 12/M01 A3032 RMK A01 T01241013  RH  039%=      5-min Rain = 0
KCL2 102058Z 29004KT 13/M01 A3032 RMK A01 T01261013  RH  038%=      5-min Rain = 0
KCL2 102059Z 31004KT 13/M01 A3032 RMK A01 T01271014  RH  037%=      5-min Rain = 0
KCL2 102100Z 30004KT 13/M01 A3032 RMK A01 T01281014  RH  038%=      5-min Rain = 0
KCL2 102101Z 34003KT 13/M01 A3032 RMK A01 T01261013  RH  038%=      5-min Rain = 0
KCL2 102102Z 35001KT 13/M02 A3032 RMK A01 T01261015  RH  038%=      5-min Rain = 0
KCL2 102103Z 01003KT 12/M01 A3032 RMK A01 T01241013  RH  039%=      5-min Rain = 0
KCL2 102104Z 00003KT 12/M01 A3031 RMK A01 T01231014  RH  038%=      5-min Rain = 0
KCL2 102105Z 35005KT 12/M01 A3031 RMK A01 T01231009  RH  040%=      5-min Rain = 0
KCL2 102106Z 34006KT 12/M01 A3031 RMK A01 T01241009  RH  040%=      5-min Rain = 0
KCL2 102107Z 34006KT 13/M01 A3031 RMK A01 T01261010  RH  039%=      5-min Rain = 0
KCL2 102108Z 33005KT 13/M01 A3031 RMK A01 T01261009  RH  039%=      5-min Rain = 0
KCL2 102109Z 33005KT 13/M01 A3031 RMK A01 T01271012  RH  038%=      5-min Rain = 0
KCL2 102110Z 32003KT 13/M01 A3031 RMK A01 T01271011  RH  038%=      5-min Rain = 0
KCL2 102111Z 31005KT 13/M01 A3031 RMK A01 T01281011  RH  038%=      5-min Rain = 0
KCL2 102112Z 31004KT 13/M01 A3031 RMK A01 T01281011  RH  038%=      5-min Rain = 0
KCL2 102113Z 30003KT 13/M01 A3031 RMK A01 T01281013  RH  038%=      5-min Rain = 0
KCL2 102114Z 31002KT 13/M01 A3031 RMK A01 T01271013  RH  038%=      5-min Rain = 0
KCL2 102115Z 33003KT 13/M01 A3031 RMK A01 T01271012  RH  038%=      5-min Rain = 0
KCL2 102116Z 33005KT 13/M01 A3031 RMK A01 T01271011  RH  039%=      5-min Rain = 0
KCL2 102117Z 32003KT 13/M01 A3031 RMK A01 T01271013  RH  038%=      5-min Rain = 0
KCL2 102118Z 35004KT 13/M01 A3031 RMK A01 T01261012  RH  038%=      5-min Rain = 0
KCL2 102119Z 01004KT 13/M01 A3031 RMK A01 T01261010  RH  039%=      5-min Rain = 0
KCL2 102120Z 00004KT 13/M01 A3031 RMK A01 T01251009  RH  039%=      5-min Rain = 0
KCL2 102121Z 02005KT 12/M01 A3031 RMK A01 T01241007  RH  040%=      5-min Rain = 0
KCL2 102122Z 03005KT 12/M01 A3031 RMK A01 T01241010  RH  039%=      5-min Rain = 0
KCL2 102123Z 03006KT 12/M01 A3031 RMK A01 T01231009  RH  040%=      5-min Rain = 0
KCL2 102124Z 05005KT 12/M01 A3031 RMK A01 T01231009  RH  040%=      5-min Rain = 0
KCL2 102125Z 03003KT 12/M01 A3031 RMK A01 T01221009  RH  040%=      5-min Rain = 0
KCL2 102126Z 01003KT 12/M01 A3031 RMK A01 T01231008  RH  040%=      5-min Rain = 0
KCL2 102127Z 31003KT 12/M01 A3031 RMK A01 T01241009  RH  040%=      5-min Rain = 0
KCL2 102128Z 30003KT 13/M01 A3031 RMK A01 T01261008  RH  040%=      5-min Rain = 0
KCL2 102129Z 31003KT 13/M01 A3031 RMK A01 T01261010  RH  039%=      5-min Rain = 0
KCL2 102130Z 32003KT 13/M01 A3031 RMK A01 T01261006  RH  040%=      5-min Rain = 0
KCL2 102131Z 30004KT 13/M01 A3031 RMK A01 T01281007  RH  039%=      5-min Rain = 0
KCL2 102132Z 32002KT 13/M01 A3031 RMK A01 T01281010  RH  038%=      5-min Rain = 0
KCL2 102133Z 36001KT 13/M01 A3031 RMK A01 T01261012  RH  038%=      5-min Rain = 0
KCL2 102134Z 08001KT 13/M01 A3031 RMK A01 T01261010  RH  039%=      5-min Rain = 0
KCL2 102135Z 11001KT 13/M01 A3031 RMK A01 T01251012  RH  039%=      5-min Rain = 0
KCL2 102136Z 10000KT 12/M01 A3031 RMK A01 T01241011  RH  039%=      5-min Rain = 0
KCL2 102137Z 24001KT 13/M01 A3031 RMK A01 T01251005  RH  040%=      5-min Rain = 0
KCL2 102138Z 22001KT 13/M01 A3031 RMK A01 T01291007  RH  039%=      5-min Rain = 0
KCL2 102139Z 22001KT 13/M01 A3031 RMK A01 T01311007  RH  039%=      5-min Rain = 0
KCL2 102140Z 21001KT 13/M01 A3031 RMK A01 T01311009  RH  038%=      5-min Rain = 0
KCL2 102141Z 24001KT 13/M01 A3031 RMK A01 T01321007  RH  038%=      5-min Rain = 0
KCL2 102142Z 23001KT 13/M01 A3031 RMK A01 T01321009  RH  038%=      5-min Rain = 0
KCL2 102143Z 24001KT 13/M01 A3031 RMK A01 T01321008  RH  038%=      5-min Rain = 0
KCL2 102144Z 26001KT 13/M01 A3031 RMK A01 T01321007  RH  038%=      5-min Rain = 0
KCL2 102145Z 04002KT 13/M01 A3031 RMK A01 T01321006  RH  038%=      5-min Rain = 0
KCL2 102146Z 25003KT 13/M01 A3031 RMK A01 T01321005  RH  039%=      5-min Rain = 0
KCL2 102147Z 30003KT 13/M01 A3031 RMK A01 T01311011  RH  037%=      5-min Rain = 0
KCL2 102148Z 32003KT 13/M01 A3031 RMK A01 T01301010  RH  038%=      5-min Rain = 0
KCL2 102149Z 33004KT 13/M01 A3031 RMK A01 T01301009  RH  038%=      5-min Rain = 0
KCL2 102150Z 33003KT 13/M01 A3031 RMK A01 T01301012  RH  037%=      5-min Rain = 0
KCL2 102151Z 35002KT 13/M01 A3031 RMK A01 T01291011  RH  038%=      5-min Rain = 0
KCL2 102152Z 34003KT 13/M01 A3031 RMK A01 T01291008  RH  039%=      5-min Rain = 0
KCL2 102153Z 34004KT 13/M01 A3031 RMK A01 T01291007  RH  039%=      5-min Rain = 0
KCL2 102154Z 34003KT 13/M01 A3031 RMK A01 T01291011  RH  038%=      5-min Rain = 0
KCL2 102155Z 34004KT 13/M01 A3031 RMK A01 T01281009  RH  039%=      5-min Rain = 0
KCL2 102156Z 33003KT 13/M01 A3031 RMK A01 T01271011  RH  038%=      5-min Rain = 0
KCL2 102157Z 30004KT 13/M01 A3031 RMK A01 T01271011  RH  039%=      5-min Rain = 0
KCL2 102158Z 31003KT 13/M01 A3031 RMK A01 T01271012  RH  038%=      5-min Rain = 0
KCL2 102159Z 32002KT 13/M01 A3031 RMK A01 T01271010  RH  039%=      5-min Rain = 0
KCL2 102200Z 34004KT 13/M01 A3031 RMK A01 T01281010  RH  038%=      5-min Rain = 0
KCL2 102201Z 35004KT 13/M01 A3031 RMK A01 T01281011  RH  038%=      5-min Rain = 0
KCL2 102202Z 35003KT 13/M01 A3031 RMK A01 T01271011  RH  038%=      5-min Rain = 0
KCL2 102203Z 34002KT 13/M01 A3031 RMK A01 T01261010  RH  039%=      5-min Rain = 0
KCL2 102204Z 00001KT 13/M01 A3031 RMK A01 T01251011  RH  039%=      5-min Rain = 0
KCL2 102205Z 35001KT 13/M01 A3031 RMK A01 T01251011  RH  039%=      5-min Rain = 0
KCL2 102206Z 35000KT 13/M01 A3031 RMK A01 T01251011  RH  039%=      5-min Rain = 0
KCL2 102207Z 31002KT 13/M01 A3031 RMK A01 T01261011  RH  039%=      5-min Rain = 0
KCL2 102208Z 31002KT 13/M01 A3031 RMK A01 T01271010  RH  039%=      5-min Rain = 0
KCL2 102209Z 31002KT 13/M01 A3031 RMK A01 T01281011  RH  038%=      5-min Rain = 0
KCL2 102210Z 31001KT 13/M01 A3031 RMK A01 T01281011  RH  038%=      5-min Rain = 0
KCL2 102211Z 32001KT 13/M01 A3031 RMK A01 T01281009  RH  039%=      5-min Rain = 0
KCL2 102212Z 31002KT 13/M01 A3031 RMK A01 T01291009  RH  038%=      5-min Rain = 0
KCL2 102213Z 32002KT 13/M01 A3031 RMK A01 T01301010  RH  038%=      5-min Rain = 0
KCL2 102214Z 35001KT 13/M01 A3031 RMK A01 T01301010  RH  038%=      5-min Rain = 0
KCL2 102215Z 35003KT 13/M01 A3031 RMK A01 T01301008  RH  038%=      5-min Rain = 0
KCL2 102216Z 32003KT 13/M01 A3031 RMK A01 T01301007  RH  039%=      5-min Rain = 0
KCL2 102217Z 31003KT 13/M01 A3031 RMK A01 T01291008  RH  039%=      5-min Rain = 0
KCL2 102218Z 32002KT 13/M01 A3031 RMK A01 T01281010  RH  039%=      5-min Rain = 0
KCL2 102219Z 32002KT 13/M01 A3031 RMK A01 T01271009  RH  039%=      5-min Rain = 0
KCL2 102220Z 32002KT 13/M01 A3031 RMK A01 T01271010  RH  039%=      5-min Rain = 0
KCL2 102221Z 33003KT 13/M01 A3031 RMK A01 T01271009  RH  039%=      5-min Rain = 0
KCL2 102222Z 36002KT 13/M01 A3031 RMK A01 T01271011  RH  039%=      5-min Rain = 0
KCL2 102223Z 35001KT 13/M01 A3031 RMK A01 T01261009  RH  039%=      5-min Rain = 0
KCL2 102224Z 01001KT 13/M01 A3031 RMK A01 T01251010  RH  039%=      5-min Rain = 0
KCL2 102225Z 00001KT 13/M01 A3031 RMK A01 T01261009  RH  039%=      5-min Rain = 0
KCL2 102226Z 02000KT 13/M01 A3031 RMK A01 T01261008  RH  040%=      5-min Rain = 0
KCL2 102227Z 02000KT 13/M01 A3031 RMK A01 T01261007  RH  040%=      5-min Rain = 0
KCL2 102228Z 04001KT 13/M00 A3031 RMK A01 T01261004  RH  041%=      5-min Rain = 0
KCL2 102229Z 03001KT 13/M00 A3031 RMK A01 T01261004  RH  041%=      5-min Rain = 0
KCL2 102230Z 01002KT 13/M00 A3031 RMK A01 T01251004  RH  041%=      5-min Rain = 0
KCL2 102231Z 01002KT 13/M00 A3031 RMK A01 T01251002  RH  041%=      5-min Rain = 0
KCL2 102232Z 02002KT 13/M01 A3031 RMK A01 T01251005  RH  041%=      5-min Rain = 0
KCL2 102233Z 02001KT 12/M01 A3031 RMK A01 T01241008  RH  040%=      5-min Rain = 0
KCL2 102234Z 33000KT 12/M01 A3031 RMK A01 T01241007  RH  040%=      5-min Rain = 0
KCL2 102235Z 31002KT 13/M01 A3031 RMK A01 T01251006  RH  041%=      5-min Rain = 0
KCL2 102236Z 30001KT 13/M01 A3031 RMK A01 T01261006  RH  040%=      5-min Rain = 0
KCL2 102237Z 28001KT 13/M01 A3031 RMK A01 T01261007  RH  040%=      5-min Rain = 0
KCL2 102238Z 28001KT 13/M01 A3031 RMK A01 T01271010  RH  039%=      5-min Rain = 0
KCL2 102239Z 31002KT 13/M01 A3031 RMK A01 T01271009  RH  039%=      5-min Rain = 0
KCL2 102240Z 29002KT 13/M01 A3031 RMK A01 T01281008  RH  039%=      5-min Rain = 0
KCL2 102241Z 28002KT 13/M01 A3031 RMK A01 T01271010  RH  039%=      5-min Rain = 0
KCL2 102242Z 29002KT 13/M01 A3031 RMK A01 T01271011  RH  039%=      5-min Rain = 0
KCL2 102243Z 30002KT 13/M01 A3031 RMK A01 T01261010  RH  039%=      5-min Rain = 0
KCL2 102244Z 29001KT 13/M01 A3031 RMK A01 T01261010  RH  039%=      5-min Rain = 0
KCL2 102245Z 29000KT 13/M01 A3031 RMK A01 T01261007  RH  040%=      5-min Rain = 0
KCL2 102246Z 28001KT 13/M01 A3031 RMK A01 T01271009  RH  039%=      5-min Rain = 0
KCL2 102247Z 28002KT 13/M01 A3031 RMK A01 T01271010  RH  039%=      5-min Rain = 0
KCL2 102248Z 28002KT 13/M01 A3031 RMK A01 T01271012  RH  038%=      5-min Rain = 0
KCL2 102249Z 28001KT 13/M01 A3031 RMK A01 T01261013  RH  038%=      5-min Rain = 0
KCL2 102250Z 28001KT 13/M01 A3031 RMK A01 T01261011  RH  039%=      5-min Rain = 0
KCL2 102251Z 26001KT 13/M01 A3031 RMK A01 T01261011  RH  039%=      5-min Rain = 0
KCL2 102252Z 27001KT 13/M01 A3031 RMK A01 T01261011  RH  039%=      5-min Rain = 0
KCL2 102253Z 27001KT 13/M01 A3031 RMK A01 T01261011  RH  039%=      5-min Rain = 0
KCL2 102254Z 28001KT 13/M01 A3031 RMK A01 T01271011  RH  039%=      5-min Rain = 0
KCL2 102255Z 28001KT 13/M01 A3031 RMK A01 T01271011  RH  038%=      5-min Rain = 0
KCL2 102256Z 28001KT 13/M01 A3031 RMK A01 T01271011  RH  038%=      5-min Rain = 0
KCL2 102257Z 28001KT 13/M01 A3031 RMK A01 T01261011  RH  039%=      5-min Rain = 0
KCL2 102258Z 28001KT 13/M01 A3031 RMK A01 T01251012  RH  039%=      5-min Rain = 0
KCL2 102259Z 28000KT 13/M01 A3031 RMK A01 T01251012  RH  039%=      5-min Rain = 0
KCL2 102300Z 00000KT 13/M01 A3031 RMK A01 T01251011  RH  039%=      5-min Rain = 0
KCL2 102301Z 00000KT 13/M01 A3031 RMK A01 T01251011  RH  039%=      5-min Rain = 0
KCL2 102302Z 00000KT 13/M01 A3031 RMK A01 T01251011  RH  039%=      5-min Rain = 0
KCL2 102303Z 00000KT 13/M01 A3031 RMK A01 T01261010  RH  039%=      5-min Rain = 0
KCL2 102304Z 00000KT 13/M01 A3031 RMK A01 T01261010  RH  039%=      5-min Rain = 0
KCL2 102305Z 00000KT 13/M01 A3031 RMK A01 T01261007  RH  040%=      5-min Rain = 0
KCL2 102306Z 00000KT 13/M01 A3031 RMK A01 T01271010  RH  039%=      5-min Rain = 0
KCL2 102307Z 24000KT 13/M01 A3031 RMK A01 T01271010  RH  039%=      5-min Rain = 0
KCL2 102308Z 00000KT 13/M01 A3031 RMK A01 T01271011  RH  038%=      5-min Rain = 0
KCL2 102309Z 00000KT 13/M01 A3031 RMK A01 T01271012  RH  038%=      5-min Rain = 0
KCL2 102310Z 00000KT 13/M01 A3031 RMK A01 T01281012  RH  038%=      5-min Rain = 0
KCL2 102311Z 00000KT 13/M01 A3031 RMK A01 T01281011  RH  038%=      5-min Rain = 0
KCL2 102312Z 00000KT 13/M01 A3031 RMK A01 T01281010  RH  038%=      5-min Rain = 0
KCL2 102313Z 00000KT 13/M01 A3031 RMK A01 T01281010  RH  038%=      5-min Rain = 0
KCL2 102314Z 00000KT 13/M01 A3031 RMK A01 T01261012  RH  038%=      5-min Rain = 0
KCL2 102315Z 00000KT 12/M01 A3032 RMK A01 T01241013  RH  038%=      5-min Rain = 0
KCL2 102316Z 00000KT 12/M01 A3032 RMK A01 T01231014  RH  039%=      5-min Rain = 0
KCL2 102317Z 00000KT 12/M01 A3032 RMK A01 T01211013  RH  039%=      5-min Rain = 0
KCL2 102318Z 00000KT 12/M01 A3032 RMK A01 T01191010  RH  041%=      5-min Rain = 0
KCL2 102319Z 00000KT 12/M01 A3032 RMK A01 T01171011  RH  041%=      5-min Rain = 0
KCL2 102320Z 00000KT 12/M01 A3032 RMK A01 T01151012  RH  041%=      5-min Rain = 0
KCL2 102321Z 00000KT 11/M01 A3032 RMK A01 T01131012  RH  042%=      5-min Rain = 0
KCL2 102322Z 00000KT 11/M01 A3032 RMK A01 T01121012  RH  042%=      5-min Rain = 0
KCL2 102323Z 00000KT 11/M01 A3032 RMK A01 T01111014  RH  042%=      5-min Rain = 0
KCL2 102324Z 00000KT 11/M02 A3032 RMK A01 T01101015  RH  042%=      5-min Rain = 0
KCL2 102325Z 00000KT 11/M02 A3032 RMK A01 T01091015  RH  042%=      5-min Rain = 0
KCL2 102326Z 00000KT 11/M02 A3032 RMK A01 T01081015  RH  042%=      5-min Rain = 0
KCL2 102327Z 00000KT 11/M02 A3032 RMK A01 T01071016  RH  042%=      5-min Rain = 0
KCL2 102328Z 00000KT 11/M02 A3032 RMK A01 T01061016  RH  043%=      5-min Rain = 0
KCL2 102329Z 00000KT 11/M02 A3032 RMK A01 T01051016  RH  043%=      5-min Rain = 0
KCL2 102330Z 00000KT 11/M02 A3032 RMK A01 T01051016  RH  043%=      5-min Rain = 0
KCL2 102331Z 00000KT 11/M02 A3032 RMK A01 T01051016  RH  043%=      5-min Rain = 0
KCL2 102332Z 00000KT 11/M02 A3032 RMK A01 T01051016  RH  043%=      5-min Rain = 0
KCL2 102333Z 00000KT 11/M02 A3032 RMK A01 T01061016  RH  043%=      5-min Rain = 0
KCL2 102334Z 00000KT 11/M02 A3032 RMK A01 T01061016  RH  043%=      5-min Rain = 0
KCL2 102335Z 00000KT 11/M02 A3032 RMK A01 T01061016  RH  043%=      5-min Rain = 0
KCL2 102336Z 00000KT 11/M02 A3032 RMK A01 T01061017  RH  042%=      5-min Rain = 0
KCL2 102337Z 00000KT 11/M02 A3032 RMK A01 T01061018  RH  042%=      5-min Rain = 0
KCL2 102338Z 00000KT 11/M02 A3032 RMK A01 T01061018  RH  042%=      5-min Rain = 0
KCL2 102339Z 00000KT 11/M02 A3032 RMK A01 T01071018  RH  042%=      5-min Rain = 0
KCL2 102340Z 00000KT 11/M02 A3032 RMK A01 T01071018  RH  042%=      5-min Rain = 0
KCL2 102341Z 00000KT 11/M02 A3032 RMK A01 T01071018  RH  042%=      5-min Rain = 0
KCL2 102342Z 00000KT 11/M02 A3032 RMK A01 T01071020  RH  041%=      5-min Rain = 0
KCL2 102343Z 00000KT 11/M02 A3033 RMK A01 T01071018  RH  042%=      5-min Rain = 0
KCL2 102344Z 00000KT 11/M02 A3033 RMK A01 T01071018  RH  042%=      5-min Rain = 0
KCL2 102345Z 00000KT 11/M02 A3033 RMK A01 T01061016  RH  042%=      5-min Rain = 0
KCL2 102346Z 00000KT 11/M02 A3033 RMK A01 T01061015  RH  043%=      5-min Rain = 0
KCL2 102347Z 00000KT 11/M02 A3032 RMK A01 T01051015  RH  043%=      5-min Rain = 0
KCL2 102348Z 00000KT 10/M02 A3033 RMK A01 T01041015  RH  043%=      5-min Rain = 0
KCL2 102349Z 00000KT 10/M02 A3033 RMK A01 T01041016  RH  043%=      5-min Rain = 0
KCL2 102350Z 00000KT 10/M02 A3033 RMK A01 T01031016  RH  043%=      5-min Rain = 0
KCL2 102351Z 00000KT 10/M01 A3033 RMK A01 T01021014  RH  044%=      5-min Rain = 0
KCL2 102352Z 00000KT 10/M01 A3033 RMK A01 T01001013  RH  045%=      5-min Rain = 0
KCL2 102353Z 00000KT 10/M01 A3033 RMK A01 T00971012  RH  047%=      5-min Rain = 0
KCL2 102354Z 00000KT 10/M01 A3033 RMK A01 T00961011  RH  047%=      5-min Rain = 0
KCL2 102355Z 00000KT 09/M01 A3033 RMK A01 T00941012  RH  047%=      5-min Rain = 0
KCL2 102356Z 00000KT 09/M01 A3033 RMK A01 T00941013  RH  047%=      5-min Rain = 0
KCL2 102357Z 00000KT 09/M01 A3033 RMK A01 T00921011  RH  049%=      5-min Rain = 0
KCL2 102358Z 00000KT 09/M01 A3033 RMK A01 T00871012  RH  050%=      5-min Rain = 0
KCL2 102359Z 00000KT 09/M01 A3033 RMK A01 T00851011  RH  051%=      5-min Rain = 0
KCL2 110000Z 00000KT 08/M01 A3033 RMK A01 T00811009  RH  053%=      5-min Rain = 0
KCL2 110001Z 00000KT 08/M01 A3033 RMK A01 T00791010  RH  054%=      5-min Rain = 0
KCL2 110002Z 00000KT 08/M01 A3033 RMK A01 T00781011  RH  053%=      5-min Rain = 0
KCL2 110003Z 00000KT 08/M02 A3033 RMK A01 T00801015  RH  051%=      5-min Rain = 0
KCL2 110004Z 00000KT 08/M02 A3033 RMK A01 T00831016  RH  050%=      5-min Rain = 0
KCL2 110005Z 00000KT 09/M02 A3033 RMK A01 T00861016  RH  049%=      5-min Rain = 0
KCL2 110006Z 00000KT 09/M02 A3033 RMK A01 T00881017  RH  048%=      5-min Rain = 0
KCL2 110007Z 00000KT 09/M02 A3033 RMK A01 T00901018  RH  047%=      5-min Rain = 0
KCL2 110008Z 00000KT 09/M02 A3033 RMK A01 T00921020  RH  045%=      5-min Rain = 0
KCL2 110009Z 00000KT 09/M02 A3033 RMK A01 T00941020  RH  045%=      5-min Rain = 0
KCL2 110010Z 00000KT 10/M02 A3033 RMK A01 T00951021  RH  044%=      5-min Rain = 0
KCL2 110011Z 00000KT 10/M02 A3033 RMK A01 T00961022  RH  043%=      5-min Rain = 0
KCL2 110012Z 00000KT 10/M02 A3033 RMK A01 T00961024  RH  043%=      5-min Rain = 0
KCL2 110013Z 00000KT 10/M02 A3033 RMK A01 T00961022  RH  044%=      5-min Rain = 0
KCL2 110014Z 00000KT 09/M02 A3033 RMK A01 T00941022  RH  044%=      5-min Rain = 0
KCL2 110015Z 00000KT 09/M02 A3033 RMK A01 T00921023  RH  044%=      5-min Rain = 0
KCL2 110016Z 00000KT 09/M02 A3033 RMK A01 T00921023  RH  044%=      5-min Rain = 0
KCL2 110017Z 00000KT 09/M02 A3033 RMK A01 T00921023  RH  044%=      5-min Rain = 0
KCL2 110018Z 00000KT 09/M02 A3033 RMK A01 T00911022  RH  045%=      5-min Rain = 0
KCL2 110019Z 00000KT 09/M02 A3033 RMK A01 T00891021  RH  046%=      5-min Rain = 0
KCL2 110020Z 00000KT 09/M02 A3033 RMK A01 T00881022  RH  046%=      5-min Rain = 0
KCL2 110021Z 00000KT 09/M02 A3033 RMK A01 T00881023  RH  046%=      5-min Rain = 0
KCL2 110022Z 00000KT 09/M02 A3033 RMK A01 T00881022  RH  046%=      5-min Rain = 0
KCL2 110023Z 00000KT 09/M02 A3033 RMK A01 T00871020  RH  047%=      5-min Rain = 0
KCL2 110024Z 00000KT 08/M02 A3033 RMK A01 T00831019  RH  049%=      5-min Rain = 0
KCL2 110025Z 00000KT 08/M02 A3033 RMK A01 T00791019  RH  050%=      5-min Rain = 0
KCL2 110026Z 00000KT 08/M02 A3033 RMK A01 T00761018  RH  051%=      5-min Rain = 0
KCL2 110027Z 00000KT 07/M02 A3033 RMK A01 T00721017  RH  053%=      5-min Rain = 0
KCL2 110028Z 00000KT 07/M02 A3033 RMK A01 T00701016  RH  054%=      5-min Rain = 0
KCL2 110029Z 00000KT 07/M02 A3033 RMK A01 T00671015  RH  056%=      5-min Rain = 0
KCL2 110030Z 00000KT 07/M02 A3033 RMK A01 T00651015  RH  057%=      5-min Rain = 0
KCL2 110031Z 00000KT 06/M02 A3033 RMK A01 T00631016  RH  057%=      5-min Rain = 0
KCL2 110032Z 00000KT 06/M02 A3033 RMK A01 T00611019  RH  056%=      5-min Rain = 0
KCL2 110033Z 00000KT 06/M02 A3033 RMK A01 T00621020  RH  056%=      5-min Rain = 0
KCL2 110034Z 00000KT 07/M02 A3033 RMK A01 T00651021  RH  054%=      5-min Rain = 0
KCL2 110035Z 00000KT 07/M02 A3033 RMK A01 T00681022  RH  053%=      5-min Rain = 0
KCL2 110036Z 00000KT 07/M02 A3033 RMK A01 T00701021  RH  052%=      5-min Rain = 0
KCL2 110037Z 00000KT 07/M02 A3033 RMK A01 T00711022  RH  052%=      5-min Rain = 0
KCL2 110038Z 00000KT 08/M02 A3033 RMK A01 T00751022  RH  050%=      5-min Rain = 0
KCL2 110039Z 00000KT 08/M02 A3033 RMK A01 T00781020  RH  050%=      5-min Rain = 0
KCL2 110040Z 00000KT 08/M02 A3033 RMK A01 T00781019  RH  050%=      5-min Rain = 0
KCL2 110041Z 14001KT 08/M02 A3033 RMK A01 T00761019  RH  051%=      5-min Rain = 0
KCL2 110042Z 14001KT 08/M02 A3033 RMK A01 T00751019  RH  051%=      5-min Rain = 0
KCL2 110043Z 14001KT 07/M02 A3033 RMK A01 T00741019  RH  052%=      5-min Rain = 0
KCL2 110044Z 14001KT 07/M02 A3033 RMK A01 T00721019  RH  052%=      5-min Rain = 0
KCL2 110045Z 14001KT 07/M02 A3033 RMK A01 T00711021  RH  052%=      5-min Rain = 0
KCL2 110046Z 14001KT 07/M02 A3033 RMK A01 T00711022  RH  052%=      5-min Rain = 0
KCL2 110047Z 14002KT 07/M02 A3033 RMK A01 T00711023  RH  051%=      5-min Rain = 0
KCL2 110048Z 14002KT 07/M02 A3033 RMK A01 T00741023  RH  050%=      5-min Rain = 0
KCL2 110049Z 14002KT 08/M02 A3033 RMK A01 T00791023  RH  048%=      5-min Rain = 0
KCL2 110050Z 14002KT 08/M02 A3033 RMK A01 T00801022  RH  048%=      5-min Rain = 0
KCL2 110051Z 14002KT 08/M02 A3033 RMK A01 T00781022  RH  049%=      5-min Rain = 0
KCL2 110052Z 14002KT 08/M02 A3033 RMK A01 T00751022  RH  050%=      5-min Rain = 0
KCL2 110053Z 14003KT 07/M02 A3033 RMK A01 T00721023  RH  051%=      5-min Rain = 0
KCL2 110054Z 14003KT 07/M02 A3033 RMK A01 T00691023  RH  052%=      5-min Rain = 0
KCL2 110055Z 14003KT 07/M02 A3033 RMK A01 T00661022  RH  053%=      5-min Rain = 0
KCL2 110056Z 14003KT 06/M02 A3033 RMK A01 T00631022  RH  055%=      5-min Rain = 0
KCL2 110057Z 14003KT 06/M02 A3033 RMK A01 T00611022  RH  055%=      5-min Rain = 0
KCL2 110058Z 13003KT 06/M02 A3033 RMK A01 T00611022  RH  055%=      5-min Rain = 0
KCL2 110059Z 13003KT 06/M02 A3033 RMK A01 T00611021  RH  055%=      5-min Rain = 0
KCL2 110100Z 14003KT 06/M02 A3033 RMK A01 T00621023  RH  054%=      5-min Rain = 0
KCL2 110101Z 14004KT 06/M02 A3033 RMK A01 T00631024  RH  054%=      5-min Rain = 0
KCL2 110102Z 14003KT 06/M02 A3033 RMK A01 T00631024  RH  054%=      5-min Rain = 0
KCL2 110103Z 14003KT 06/M02 A3033 RMK A01 T00631022  RH  055%=      5-min Rain = 0
KCL2 110104Z 14003KT 06/M02 A3033 RMK A01 T00591022  RH  056%=      5-min Rain = 0
KCL2 110105Z 14003KT 06/M02 A3033 RMK A01 T00561022  RH  057%=      5-min Rain = 0
KCL2 110106Z 14003KT 06/M02 A3033 RMK A01 T00561023  RH  057%=      5-min Rain = 0
KCL2 110107Z 14003KT 06/M02 A3033 RMK A01 T00581023  RH  056%=      5-min Rain = 0
KCL2 110108Z 14003KT 06/M02 A3033 RMK A01 T00621023  RH  055%=      5-min Rain = 0
KCL2 110109Z 14003KT 07/M02 A3033 RMK A01 T00681023  RH  053%=      5-min Rain = 0
KCL2 110110Z 14003KT 07/M02 A3033 RMK A01 T00721023  RH  051%=      5-min Rain = 0
KCL2 110111Z 14003KT 07/M02 A3033 RMK A01 T00711023  RH  051%=      5-min Rain = 0
KCL2 110112Z 13003KT 07/M02 A3033 RMK A01 T00671023  RH  053%=      5-min Rain = 0
KCL2 110113Z 13003KT 06/M02 A3033 RMK A01 T00641023  RH  054%=      5-min Rain = 0
KCL2 110114Z 13003KT 06/M02 A3033 RMK A01 T00631023  RH  054%=      5-min Rain = 0
KCL2 110115Z 13003KT 06/M02 A3033 RMK A01 T00641023  RH  054%=      5-min Rain = 0
KCL2 110116Z 13003KT 07/M02 A3033 RMK A01 T00651023  RH  053%=      5-min Rain = 0
KCL2 110117Z 14003KT 06/M02 A3033 RMK A01 T00641022  RH  054%=      5-min Rain = 0
KCL2 110118Z 14003KT 06/M02 A3033 RMK A01 T00621022  RH  055%=      5-min Rain = 0
KCL2 110119Z 13004KT 06/M02 A3033 RMK A01 T00601023  RH  055%=      5-min Rain = 0
KCL2 110120Z 14004KT 06/M02 A3033 RMK A01 T00581022  RH  057%=      5-min Rain = 0
KCL2 110121Z 14004KT 06/M02 A3033 RMK A01 T00561020  RH  058%=      5-min Rain = 0
KCL2 110122Z 15004KT 06/M02 A3033 RMK A01 T00561021  RH  058%=      5-min Rain = 0
KCL2 110123Z 15003KT 06/M02 A3033 RMK A01 T00571020  RH  058%=      5-min Rain = 0
KCL2 110124Z 15003KT 06/M02 A3033 RMK A01 T00581017  RH  058%=      5-min Rain = 0
KCL2 110125Z 15003KT 06/M02 A3033 RMK A01 T00591017  RH  058%=      5-min Rain = 0
KCL2 110126Z 14003KT 06/M02 A3033 RMK A01 T00601018  RH  057%=      5-min Rain = 0
KCL2 110127Z 15003KT 06/M02 A3033 RMK A01 T00621019  RH  056%=      5-min Rain = 0
KCL2 110128Z 15003KT 06/M02 A3033 RMK A01 T00631021  RH  055%=      5-min Rain = 0
KCL2 110129Z 16003KT 06/M02 A3033 RMK A01 T00641020  RH  055%=      5-min Rain = 0
KCL2 110130Z 16004KT 06/M02 A3033 RMK A01 T00621022  RH  055%=      5-min Rain = 0
KCL2 110131Z 16005KT 06/M02 A3033 RMK A01 T00591022  RH  056%=      5-min Rain = 0
KCL2 110132Z 15005KT 06/M02 A3033 RMK A01 T00551024  RH  057%=      5-min Rain = 0
KCL2 110133Z 15005KT 06/M02 A3033 RMK A01 T00571024  RH  056%=      5-min Rain = 0
KCL2 110134Z 16005KT 06/M02 A3033 RMK A01 T00631023  RH  054%=      5-min Rain = 0
KCL2 110135Z 15005KT 07/M02 A3033 RMK A01 T00681023  RH  052%=      5-min Rain = 0
KCL2 110136Z 15005KT 07/M02 A3033 RMK A01 T00691023  RH  052%=      5-min Rain = 0
KCL2 110137Z 14005KT 07/M02 A3033 RMK A01 T00681022  RH  053%=      5-min Rain = 0
KCL2 110138Z 15004KT 07/M02 A3033 RMK A01 T00651019  RH  055%=      5-min Rain = 0
KCL2 110139Z 15005KT 06/M02 A3033 RMK A01 T00631018  RH  056%=      5-min Rain = 0
KCL2 110140Z 15005KT 06/M02 A3033 RMK A01 T00631018  RH  056%=      5-min Rain = 0
KCL2 110141Z 15005KT 07/M02 A3033 RMK A01 T00651021  RH  054%=      5-min Rain = 0
KCL2 110142Z 15005KT 07/M02 A3033 RMK A01 T00681022  RH  053%=      5-min Rain = 0
KCL2 110143Z 15005KT 07/M02 A3033 RMK A01 T00701023  RH  052%=      5-min Rain = 0
KCL2 110144Z 15005KT 07/M02 A3033 RMK A01 T00721022  RH  051%=      5-min Rain = 0
KCL2 110145Z 15005KT 07/M02 A3033 RMK A01 T00721022  RH  051%=      5-min Rain = 0
KCL2 110146Z 14004KT 07/M02 A3033 RMK A01 T00691021  RH  053%=      5-min Rain = 0
KCL2 110147Z 14004KT 06/M02 A3033 RMK A01 T00631019  RH  056%=      5-min Rain = 0
KCL2 110148Z 14004KT 06/M02 A3033 RMK A01 T00571021  RH  057%=      5-min Rain = 0
KCL2 110149Z 14005KT 05/M02 A3033 RMK A01 T00521022  RH  059%=      5-min Rain = 0
KCL2 110150Z 14005KT 05/M02 A3033 RMK A01 T00491023  RH  060%=      5-min Rain = 0
KCL2 110151Z 14005KT 05/M02 A3033 RMK A01 T00451023  RH  061%=      5-min Rain = 0
KCL2 110152Z 14005KT 04/M02 A3033 RMK A01 T00431022  RH  063%=      5-min Rain = 0
KCL2 110153Z 14005KT 04/M02 A3033 RMK A01 T00421022  RH  063%=      5-min Rain = 0
KCL2 110154Z 14005KT 04/M02 A3033 RMK A01 T00431022  RH  063%=      5-min Rain = 0
KCL2 110155Z 14005KT 05/M02 A3033 RMK A01 T00481021  RH  061%=      5-min Rain = 0
KCL2 110156Z 15005KT 05/M02 A3033 RMK A01 T00521020  RH  059%=      5-min Rain = 0
KCL2 110157Z 15005KT 06/M02 A3033 RMK A01 T00561019  RH  058%=      5-min Rain = 0
KCL2 110158Z 15005KT 06/M02 A3033 RMK A01 T00581020  RH  057%=      5-min Rain = 0
KCL2 110159Z 15005KT 06/M02 A3033 RMK A01 T00601021  RH  056%=      5-min Rain = 0
KCL2 110200Z 15006KT 06/M02 A3033 RMK A01 T00621021  RH  055%=      5-min Rain = 0
KCL2 110201Z 16006KT 06/M02 A3033 RMK A01 T00641021  RH  054%=      5-min Rain = 0
KCL2 110202Z 16006KT 07/M02 A3033 RMK A01 T00651021  RH  054%=      5-min Rain = 0
KCL2 110203Z 16006KT 07/M02 A3033 RMK A01 T00661021  RH  054%=      5-min Rain = 0
KCL2 110204Z 16006KT 07/M02 A3033 RMK A01 T00671022  RH  053%=      5-min Rain = 0
KCL2 110205Z 16006KT 07/M02 A3033 RMK A01 T00671022  RH  053%=      5-min Rain = 0
KCL2 110206Z 15005KT 07/M02 A3033 RMK A01 T00671021  RH  053%=      5-min Rain = 0
KCL2 110207Z 15006KT 07/M02 A3033 RMK A01 T00671019  RH  054%=      5-min Rain = 0
KCL2 110208Z 15005KT 07/M02 A3033 RMK A01 T00661018  RH  055%=      5-min Rain = 0
KCL2 110209Z 15005KT 07/M02 A3033 RMK A01 T00661018  RH  055%=      5-min Rain = 0
KCL2 110210Z 15005KT 07/M02 A3033 RMK A01 T00661019  RH  054%=      5-min Rain = 0
KCL2 110211Z 15005KT 07/M02 A3033 RMK A01 T00671019  RH  054%=      5-min Rain = 0
KCL2 110212Z 15005KT 07/M02 A3033 RMK A01 T00671019  RH  054%=      5-min Rain = 0
KCL2 110213Z 15005KT 07/M02 A3033 RMK A01 T00671019  RH  054%=      5-min Rain = 0
KCL2 110214Z 15005KT 07/M02 A3033 RMK A01 T00661020  RH  054%=      5-min Rain = 0
KCL2 110215Z 16005KT 07/M02 A3033 RMK A01 T00651020  RH  055%=      5-min Rain = 0
KCL2 110216Z 16006KT 06/M02 A3033 RMK A01 T00641020  RH  055%=      5-min Rain = 0
KCL2 110217Z 16006KT 06/M02 A3033 RMK A01 T00621020  RH  056%=      5-min Rain = 0
KCL2 110218Z 16006KT 06/M02 A3033 RMK A01 T00611020  RH  056%=      5-min Rain = 0
KCL2 110219Z 16006KT 06/M02 A3033 RMK A01 T00611021  RH  056%=      5-min Rain = 0
KCL2 110220Z 16006KT 06/M02 A3033 RMK A01 T00631020  RH  055%=      5-min Rain = 0
KCL2 110221Z 17006KT 06/M02 A3033 RMK A01 T00631020  RH  055%=      5-min Rain = 0
KCL2 110222Z 16006KT 06/M02 A3033 RMK A01 T00631020  RH  055%=      5-min Rain = 0
KCL2 110223Z 16006KT 06/M02 A3033 RMK A01 T00631019  RH  056%=      5-min Rain = 0
KCL2 110224Z 16006KT 06/M02 A3033 RMK A01 T00621019  RH  056%=      5-min Rain = 0
KCL2 110225Z 17006KT 06/M02 A3033 RMK A01 T00601019  RH  057%=      5-min Rain = 0
KCL2 110226Z 16006KT 06/M02 A3033 RMK A01 T00591020  RH  057%=      5-min Rain = 0
KCL2 110227Z 16006KT 06/M02 A3033 RMK A01 T00581019  RH  057%=      5-min Rain = 0
KCL2 110228Z 17006KT 06/M02 A3034 RMK A01 T00581019  RH  058%=      5-min Rain = 0
KCL2 110229Z 17007KT 06/M02 A3034 RMK A01 T00581019  RH  058%=      5-min Rain = 0
KCL2 110230Z 17007KT 06/M02 A3034 RMK A01 T00571018  RH  058%=      5-min Rain = 0
KCL2 110231Z 17006KT 06/M02 A3033 RMK A01 T00561018  RH  059%=      5-min Rain = 0
KCL2 110232Z 17006KT 06/M02 A3034 RMK A01 T00551018  RH  059%=      5-min Rain = 0
KCL2 110233Z 17006KT 05/M02 A3034 RMK A01 T00541018  RH  059%=      5-min Rain = 0
KCL2 110234Z 17006KT 05/M02 A3034 RMK A01 T00541018  RH  060%=      5-min Rain = 0
KCL2 110235Z 16006KT 05/M02 A3034 RMK A01 T00541018  RH  060%=      5-min Rain = 0
KCL2 110236Z 16007KT 05/M02 A3034 RMK A01 T00541018  RH  060%=      5-min Rain = 0
KCL2 110237Z 17007KT 05/M02 A3034 RMK A01 T00541017  RH  060%=      5-min Rain = 0
KCL2 110238Z 17007KT 05/M02 A3034 RMK A01 T00531016  RH  061%=      5-min Rain = 0
KCL2 110239Z 17007KT 05/M02 A3034 RMK A01 T00541016  RH  061%=      5-min Rain = 0
KCL2 110240Z 17006KT 05/M02 A3034 RMK A01 T00531016  RH  061%=      5-min Rain = 0
KCL2 110241Z 17006KT 05/M02 A3034 RMK A01 T00531016  RH  061%=      5-min Rain = 0
KCL2 110242Z 17007KT 05/M02 A3034 RMK A01 T00531016  RH  061%=      5-min Rain = 0
KCL2 110243Z 17006KT 05/M02 A3034 RMK A01 T00521017  RH  061%=      5-min Rain = 0
KCL2 110244Z 17006KT 05/M02 A3034 RMK A01 T00521017  RH  061%=      5-min Rain = 0
KCL2 110245Z 17006KT 05/M02 A3034 RMK A01 T00521016  RH  061%=      5-min Rain = 0
KCL2 110246Z 17006KT 05/M02 A3033 RMK A01 T00511016  RH  062%=      5-min Rain = 0
KCL2 110247Z 17007KT 05/M02 A3033 RMK A01 T00511016  RH  062%=      5-min Rain = 0
KCL2 110248Z 17007KT 05/M02 A3033 RMK A01 T00511016  RH  062%=      5-min Rain = 0
KCL2 110249Z 17007KT 05/M02 A3033 RMK A01 T00521016  RH  062%=      5-min Rain = 0
KCL2 110250Z 17007KT 05/M02 A3033 RMK A01 T00511016  RH  062%=      5-min Rain = 0
KCL2 110251Z 17007KT 05/M02 A3033 RMK A01 T00511016  RH  062%=      5-min Rain = 0
KCL2 110252Z 17007KT 05/M02 A3033 RMK A01 T00511015  RH  062%=      5-min Rain = 0
KCL2 110253Z 17006KT 05/M02 A3033 RMK A01 T00511015  RH  062%=      5-min Rain = 0
KCL2 110254Z 17006KT 05/M02 A3033 RMK A01 T00511015  RH  063%=      5-min Rain = 0
KCL2 110255Z 17007KT 05/M02 A3033 RMK A01 T00501015  RH  063%=      5-min Rain = 0
KCL2 110256Z 17007KT 05/M02 A3033 RMK A01 T00501015  RH  063%=      5-min Rain = 0
KCL2 110257Z 17007KT 05/M02 A3033 RMK A01 T00491015  RH  063%=      5-min Rain = 0
KCL2 110258Z 17007KT 05/M02 A3033 RMK A01 T00491015  RH  063%=      5-min Rain = 0
KCL2 110259Z 17007KT 05/M02 A3033 RMK A01 T00491015  RH  063%=      5-min Rain = 0
KCL2 110300Z 17007KT 05/M02 A3033 RMK A01 T00491015  RH  063%=      5-min Rain = 0
KCL2 110301Z 16007KT 05/M02 A3033 RMK A01 T00491015  RH  063%=      5-min Rain = 0
KCL2 110302Z 17007KT 05/M02 A3033 RMK A01 T00491015  RH  063%=      5-min Rain = 0
KCL2 110303Z 17007KT 05/M02 A3033 RMK A01 T00501015  RH  063%=      5-min Rain = 0
KCL2 110304Z 17007KT 05/M02 A3033 RMK A01 T00501015  RH  063%=      5-min Rain = 0
KCL2 110305Z 17007KT 05/M02 A3033 RMK A01 T00511015  RH  062%=      5-min Rain = 0
KCL2 110306Z 17007KT 05/M02 A3034 RMK A01 T00511015  RH  063%=      5-min Rain = 0
KCL2 110307Z 17007KT 05/M02 A3033 RMK A01 T00511015  RH  063%=      5-min Rain = 0
KCL2 110308Z 17007KT 05/M02 A3033 RMK A01 T00511015  RH  062%=      5-min Rain = 0
KCL2 110309Z 17007KT 05/M02 A3033 RMK A01 T00511015  RH  062%=      5-min Rain = 0
KCL2 110310Z 17007KT 05/M02 A3033 RMK A01 T00511015  RH  062%=      5-min Rain = 0
KCL2 110311Z 17007KT 05/M02 A3033 RMK A01 T00511016  RH  062%=      5-min Rain = 0
KCL2 110312Z 17007KT 05/M02 A3033 RMK A01 T00511016  RH  062%=      5-min Rain = 0
KCL2 110313Z 17007KT 05/M02 A3033 RMK A01 T00501016  RH  062%=      5-min Rain = 0
KCL2 110314Z 17006KT 05/M02 A3033 RMK A01 T00501016  RH  062%=      5-min Rain = 0
KCL2 110315Z 17006KT 05/M02 A3033 RMK A01 T00501016  RH  062%=      5-min Rain = 0
KCL2 110316Z 18006KT 05/M02 A3033 RMK A01 T00501017  RH  062%=      5-min Rain = 0
KCL2 110317Z 18006KT 05/M02 A3033 RMK A01 T00491017  RH  062%=      5-min Rain = 0
KCL2 110318Z 18007KT 05/M02 A3033 RMK A01 T00481017  RH  063%=      5-min Rain = 0
KCL2 110319Z 18006KT 05/M02 A3033 RMK A01 T00481017  RH  063%=      5-min Rain = 0
KCL2 110320Z 18007KT 05/M02 A3033 RMK A01 T00481017  RH  063%=      5-min Rain = 0
KCL2 110321Z 18007KT 05/M02 A3033 RMK A01 T00481017  RH  063%=      5-min Rain = 0
KCL2 110322Z 17006KT 05/M02 A3033 RMK A01 T00481017  RH  063%=      5-min Rain = 0
KCL2 110323Z 17006KT 05/M02 A3033 RMK A01 T00481017  RH  063%=      5-min Rain = 0
KCL2 110324Z 17006KT 05/M02 A3033 RMK A01 T00491017  RH  063%=      5-min Rain = 0
KCL2 110325Z 17006KT 05/M02 A3033 RMK A01 T00491017  RH  063%=      5-min Rain = 0
KCL2 110326Z 17006KT 05/M02 A3033 RMK A01 T00491017  RH  062%=      5-min Rain = 0
KCL2 110327Z 17006KT 05/M02 A3033 RMK A01 T00491017  RH  062%=      5-min Rain = 0
KCL2 110328Z 17007KT 05/M02 A3033 RMK A01 T00501016  RH  062%=      5-min Rain = 0
KCL2 110329Z 18007KT 05/M02 A3033 RMK A01 T00511016  RH  062%=      5-min Rain = 0
KCL2 110330Z 18006KT 05/M02 A3033 RMK A01 T00501017  RH  062%=      5-min Rain = 0
KCL2 110331Z 18007KT 05/M02 A3033 RMK A01 T00501017  RH  062%=      5-min Rain = 0
KCL2 110332Z 18007KT 05/M02 A3033 RMK A01 T00501017  RH  062%=      5-min Rain = 0
KCL2 110333Z 17007KT 05/M02 A3033 RMK A01 T00491017  RH  062%=      5-min Rain = 0
KCL2 110334Z 17006KT 05/M02 A3033 RMK A01 T00491016  RH  062%=      5-min Rain = 0
KCL2 110335Z 17007KT 05/M02 A3033 RMK A01 T00491016  RH  063%=      5-min Rain = 0
KCL2 110336Z 17007KT 05/M02 A3033 RMK A01 T00501016  RH  063%=      5-min Rain = 0
KCL2 110337Z 17007KT 05/M02 A3033 RMK A01 T00501016  RH  062%=      5-min Rain = 0
KCL2 110338Z 17007KT 05/M02 A3033 RMK A01 T00501016  RH  062%=      5-min Rain = 0
KCL2 110339Z 17007KT 05/M02 A3033 RMK A01 T00501016  RH  062%=      5-min Rain = 0
KCL2 110340Z 18007KT 05/M02 A3033 RMK A01 T00511016  RH  062%=      5-min Rain = 0
KCL2 110341Z 18007KT 05/M02 A3033 RMK A01 T00511016  RH  062%=      5-min Rain = 0
KCL2 110342Z 18007KT 05/M02 A3033 RMK A01 T00511016  RH  062%=      5-min Rain = 0
KCL2 110343Z 18007KT 05/M02 A3033 RMK A01 T00511016  RH  062%=      5-min Rain = 0
KCL2 110344Z 18008KT 05/M02 A3033 RMK A01 T00501016  RH  062%=      5-min Rain = 0
KCL2 110345Z 18007KT 05/M02 A3033 RMK A01 T00501016  RH  062%=      5-min Rain = 0
KCL2 110346Z 19007KT 05/M02 A3033 RMK A01 T00501016  RH  062%=      5-min Rain = 0
KCL2 110347Z 19006KT 05/M02 A3033 RMK A01 T00511016  RH  062%=      5-min Rain = 0
KCL2 110348Z 18006KT 05/M02 A3033 RMK A01 T00511016  RH  062%=      5-min Rain = 0
KCL2 110349Z 18006KT 05/M02 A3033 RMK A01 T00501017  RH  062%=      5-min Rain = 0
KCL2 110350Z 18007KT 05/M02 A3033 RMK A01 T00491017  RH  062%=      5-min Rain = 0
KCL2 110351Z 18007KT 05/M02 A3033 RMK A01 T00491017  RH  062%=      5-min Rain = 0
KCL2 110352Z 19007KT 05/M02 A3033 RMK A01 T00481018  RH  062%=      5-min Rain = 0
KCL2 110353Z 19007KT 05/M02 A3033 RMK A01 T00471018  RH  063%=      5-min Rain = 0
KCL2 110354Z 19007KT 05/M02 A3033 RMK A01 T00471018  RH  063%=      5-min Rain = 0
KCL2 110355Z 19007KT 05/M02 A3033 RMK A01 T00461018  RH  063%=      5-min Rain = 0
KCL2 110356Z 19007KT 05/M02 A3033 RMK A01 T00451018  RH  063%=      5-min Rain = 0
KCL2 110357Z 19007KT 05/M02 A3033 RMK A01 T00451018  RH  064%=      5-min Rain = 0
KCL2 110358Z 19007KT 05/M02 A3033 RMK A01 T00451018  RH  064%=      5-min Rain = 0
KCL2 110359Z 19007KT 05/M02 A3033 RMK A01 T00451018  RH  064%=      5-min Rain = 0
KCL2 110400Z 19007KT 05/M02 A3033 RMK A01 T00451018  RH  064%=      5-min Rain = 0
KCL2 110401Z 19007KT 05/M02 A3033 RMK A01 T00451018  RH  064%=      5-min Rain = 0
KCL2 110402Z 19007KT 05/M02 A3033 RMK A01 T00451018  RH  064%=      5-min Rain = 0
KCL2 110403Z 19007KT 05/M02 A3033 RMK A01 T00451018  RH  064%=      5-min Rain = 0
KCL2 110404Z 19007KT 05/M02 A3033 RMK A01 T00451018  RH  064%=      5-min Rain = 0
KCL2 110405Z 19007KT 05/M02 A3033 RMK A01 T00451018  RH  064%=      5-min Rain = 0
KCL2 110406Z 19006KT 05/M02 A3033 RMK A01 T00481016  RH  063%=      5-min Rain = 0
KCL2 110407Z 19007KT 05/M02 A3033 RMK A01 T00501015  RH  063%=      5-min Rain = 0
KCL2 110408Z 19007KT 05/M02 A3033 RMK A01 T00501015  RH  063%=      5-min Rain = 0
KCL2 110409Z 19007KT 05/M02 A3033 RMK A01 T00491015  RH  063%=      5-min Rain = 0
KCL2 110410Z 19007KT 05/M02 A3033 RMK A01 T00491015  RH  063%=      5-min Rain = 0
KCL2 110411Z 19007KT 05/M02 A3033 RMK A01 T00491015  RH  063%=      5-min Rain = 0
KCL2 110412Z 19006KT 05/M01 A3033 RMK A01 T00491014  RH  064%=      5-min Rain = 0
KCL2 110413Z 19006KT 05/M01 A3033 RMK A01 T00481014  RH  064%=      5-min Rain = 0
KCL2 110414Z 19007KT 05/M01 A3033 RMK A01 T00481013  RH  065%=      5-min Rain = 0
KCL2 110415Z 19007KT 05/M01 A3033 RMK A01 T00481012  RH  065%=      5-min Rain = 0
KCL2 110416Z 19007KT 05/M01 A3033 RMK A01 T00481012  RH  065%=      5-min Rain = 0
KCL2 110417Z 19007KT 05/M01 A3033 RMK A01 T00491011  RH  066%=      5-min Rain = 0
KCL2 110418Z 19007KT 05/M01 A3033 RMK A01 T00491009  RH  066%=      5-min Rain = 0
KCL2 110419Z 19007KT 05/M01 A3033 RMK A01 T00481009  RH  066%=      5-min Rain = 0
KCL2 110420Z 19007KT 05/M01 A3033 RMK A01 T00491008  RH  067%=      5-min Rain = 0
KCL2 110421Z 19007KT 05/M01 A3033 RMK A01 T00491007  RH  067%=      5-min Rain = 0
KCL2 110422Z 19007KT 05/M01 A3033 RMK A01 T00501006  RH  067%=      5-min Rain = 0
KCL2 110423Z 19007KT 05/M01 A3033 RMK A01 T00501006  RH  067%=      5-min Rain = 0
KCL2 110424Z 19007KT 05/M01 A3033 RMK A01 T00501005  RH  067%=      5-min Rain = 0
KCL2 110425Z 19007KT 05/M01 A3033 RMK A01 T00501005  RH  068%=      5-min Rain = 0
KCL2 110426Z 19007KT 05/M00 A3033 RMK A01 T00501004  RH  068%=      5-min Rain = 0
KCL2 110427Z 19007KT 05/M00 A3033 RMK A01 T00511003  RH  068%=      5-min Rain = 0
KCL2 110428Z 19007KT 05/M00 A3033 RMK A01 T00511004  RH  068%=      5-min Rain = 0
KCL2 110429Z 19008KT 05/M00 A3033 RMK A01 T00501004  RH  068%=      5-min Rain = 0
KCL2 110430Z 19008KT 05/M00 A3033 RMK A01 T00501003  RH  069%=      5-min Rain = 0
KCL2 110431Z 19008KT 05/M00 A3033 RMK A01 T00501002  RH  069%=      5-min Rain = 0
KCL2 110432Z 19008KT 05/M00 A3033 RMK A01 T00521001  RH  069%=      5-min Rain = 0
KCL2 110433Z 19008KT 05/M00 A3033 RMK A01 T00521001  RH  069%=      5-min Rain = 0
KCL2 110434Z 19008KT 05/M00 A3033 RMK A01 T00521001  RH  068%=      5-min Rain = 0
KCL2 110435Z 19008KT 05/M00 A3033 RMK A01 T00531001  RH  068%=      5-min Rain = 0
KCL2 110436Z 19007KT 05/M00 A3033 RMK A01 T00531001  RH  068%=      5-min Rain = 0
KCL2 110437Z 19007KT 05/M00 A3033 RMK A01 T00531001  RH  068%=      5-min Rain = 0
KCL2 110438Z 19007KT 05/M00 A3033 RMK A01 T00521001  RH  068%=      5-min Rain = 0
KCL2 110439Z 19007KT 05/M00 A3033 RMK A01 T00531001  RH  068%=      5-min Rain = 0
KCL2 110440Z 19007KT 05/M00 A3033 RMK A01 T00531001  RH  068%=      5-min Rain = 0
KCL2 110441Z 19007KT 05/M00 A3033 RMK A01 T00531001  RH  068%=      5-min Rain = 0
KCL2 110442Z 19007KT 05/M00 A3033 RMK A01 T00531001  RH  068%=      5-min Rain = 0
KCL2 110443Z 19007KT 05/M00 A3033 RMK A01 T00531001  RH  068%=      5-min Rain = 0
KCL2 110444Z 19007KT 05/M00 A3033 RMK A01 T00531001  RH  068%=      5-min Rain = 0
KCL2 110445Z 19007KT 05/M00 A3033 RMK A01 T00521001  RH  069%=      5-min Rain = 0
KCL2 110446Z 18007KT 05/M00 A3033 RMK A01 T00521001  RH  069%=      5-min Rain = 0
KCL2 110447Z 19007KT 05/M00 A3033 RMK A01 T00521001  RH  069%=      5-min Rain = 0
KCL2 110448Z 19007KT 05/M00 A3033 RMK A01 T00521001  RH  069%=      5-min Rain = 0
KCL2 110449Z 18007KT 05/M00 A3033 RMK A01 T00521001  RH  069%=      5-min Rain = 0
KCL2 110450Z 18007KT 05/M00 A3033 RMK A01 T00511001  RH  069%=      5-min Rain = 0
KCL2 110451Z 18007KT 05/M00 A3033 RMK A01 T00511001  RH  069%=      5-min Rain = 0
KCL2 110452Z 18007KT 05/M00 A3033 RMK A01 T00511001  RH  069%=      5-min Rain = 0
KCL2 110453Z 18007KT 05/M00 A3033 RMK A01 T00511001  RH  069%=      5-min Rain = 0
KCL2 110454Z 18007KT 05/M00 A3033 RMK A01 T00501001  RH  069%=      5-min Rain = 0
KCL2 110455Z 18007KT 05/M00 A3033 RMK A01 T00501001  RH  069%=      5-min Rain = 0
KCL2 110456Z 18007KT 05/M00 A3033 RMK A01 T00501001  RH  069%=      5-min Rain = 0
KCL2 110457Z 18007KT 05/M00 A3033 RMK A01 T00511001  RH  069%=      5-min Rain = 0
KCL2 110458Z 18007KT 05/M00 A3033 RMK A01 T00511001  RH  069%=      5-min Rain = 0
KCL2 110459Z 18008KT 05/M00 A3033 RMK A01 T00511001  RH  069%=      5-min Rain = 0
KCL2 110500Z 18008KT 05/00 A3033 RMK A01 T005200-0  RH  069%=      5-min Rain = 0
KCL2 110501Z 18009KT 05/00 A3033 RMK A01 T00530000  RH  069%=      5-min Rain = 0
KCL2 110502Z 18008KT 05/00 A3033 RMK A01 T00530001  RH  069%=      5-min Rain = 0
KCL2 110503Z 18008KT 05/00 A3033 RMK A01 T00540002  RH  069%=      5-min Rain = 0
KCL2 110504Z 18009KT 05/00 A3033 RMK A01 T00540002  RH  069%=      5-min Rain = 0
KCL2 110505Z 19009KT 06/00 A3033 RMK A01 T00550002  RH  069%=      5-min Rain = 0
KCL2 110506Z 18008KT 06/00 A3033 RMK A01 T00560003  RH  069%=      5-min Rain = 0
KCL2 110507Z 19009KT 06/00 A3033 RMK A01 T00560003  RH  068%=      5-min Rain = 0
KCL2 110508Z 19008KT 06/00 A3033 RMK A01 T00560003  RH  069%=      5-min Rain = 0
KCL2 110509Z 19008KT 06/00 A3033 RMK A01 T00560003  RH  069%=      5-min Rain = 0
KCL2 110510Z 19008KT 06/00 A3033 RMK A01 T00550003  RH  069%=      5-min Rain = 0
KCL2 110511Z 19009KT 05/00 A3033 RMK A01 T00540003  RH  069%=      5-min Rain = 0
KCL2 110512Z 19008KT 06/00 A3033 RMK A01 T00550003  RH  069%=      5-min Rain = 0
KCL2 110513Z 19008KT 05/00 A3033 RMK A01 T00540003  RH  069%=      5-min Rain = 0
KCL2 110514Z 19007KT 06/00 A3033 RMK A01 T00550003  RH  069%=      5-min Rain = 0
KCL2 110515Z 19007KT 05/00 A3033 RMK A01 T00540003  RH  070%=      5-min Rain = 0
KCL2 110516Z 19007KT 05/00 A3033 RMK A01 T00540003  RH  070%=      5-min Rain = 0
KCL2 110517Z 19007KT 05/00 A3033 RMK A01 T00530002  RH  070%=      5-min Rain = 0
KCL2 110518Z 18007KT 05/00 A3033 RMK A01 T00520002  RH  070%=      5-min Rain = 0
KCL2 110519Z 19007KT 05/00 A3033 RMK A01 T00520003  RH  070%=      5-min Rain = 0
KCL2 110520Z 19006KT 05/00 A3033 RMK A01 T00530003  RH  070%=      5-min Rain = 0
KCL2 110521Z 18007KT 05/00 A3033 RMK A01 T00530003  RH  070%=      5-min Rain = 0
KCL2 110522Z 19006KT 05/00 A3033 RMK A01 T00530003  RH  070%=      5-min Rain = 0
KCL2 110523Z 19006KT 05/00 A3033 RMK A01 T00520002  RH  070%=      5-min Rain = 0
KCL2 110524Z 18006KT 05/00 A3033 RMK A01 T00510002  RH  071%=      5-min Rain = 0
KCL2 110525Z 19006KT 05/00 A3033 RMK A01 T00500001  RH  071%=      5-min Rain = 0
KCL2 110526Z 18006KT 05/00 A3033 RMK A01 T00490002  RH  071%=      5-min Rain = 0
KCL2 110527Z 18006KT 05/00 A3033 RMK A01 T00480002  RH  072%=      5-min Rain = 0
KCL2 110528Z 18006KT 05/00 A3033 RMK A01 T00490002  RH  072%=      5-min Rain = 0
KCL2 110529Z 18006KT 05/00 A3033 RMK A01 T00490002  RH  072%=      5-min Rain = 0
KCL2 110530Z 18006KT 05/00 A3033 RMK A01 T00480002  RH  072%=      5-min Rain = 0
KCL2 110531Z 18006KT 05/00 A3033 RMK A01 T00480003  RH  072%=      5-min Rain = 0
KCL2 110532Z 18007KT 05/00 A3033 RMK A01 T00480002  RH  072%=      5-min Rain = 0
KCL2 110533Z 19006KT 05/00 A3033 RMK A01 T00480002  RH  073%=      5-min Rain = 0
KCL2 110534Z 18007KT 05/00 A3033 RMK A01 T00470003  RH  073%=      5-min Rain = 0
KCL2 110535Z 18006KT 05/00 A3033 RMK A01 T00470003  RH  073%=      5-min Rain = 0
KCL2 110536Z 18006KT 05/00 A3033 RMK A01 T00460003  RH  074%=      5-min Rain = 0
KCL2 110537Z 18006KT 05/00 A3033 RMK A01 T00450003  RH  074%=      5-min Rain = 0
KCL2 110538Z 18006KT 05/00 A3033 RMK A01 T00460004  RH  074%=      5-min Rain = 0
KCL2 110539Z 18007KT 05/00 A3033 RMK A01 T00460004  RH  074%=      5-min Rain = 0
KCL2 110540Z 18006KT 05/01 A3033 RMK A01 T00460005  RH  075%=      5-min Rain = 0
KCL2 110541Z 18007KT 05/01 A3033 RMK A01 T00470006  RH  075%=      5-min Rain = 0
KCL2 110542Z 18006KT 05/01 A3033 RMK A01 T00480007  RH  075%=      5-min Rain = 0
KCL2 110543Z 19007KT 05/01 A3033 RMK A01 T00490008  RH  074%=      5-min Rain = 0
KCL2 110544Z 19007KT 05/01 A3033 RMK A01 T00500008  RH  074%=      5-min Rain = 0
KCL2 110545Z 19007KT 05/01 A3033 RMK A01 T00500008  RH  074%=      5-min Rain = 0
KCL2 110546Z 19008KT 05/01 A3033 RMK A01 T00510009  RH  074%=      5-min Rain = 0
KCL2 110547Z 19008KT 05/01 A3033 RMK A01 T00520010  RH  074%=      5-min Rain = 0
KCL2 110548Z 19008KT 05/01 A3033 RMK A01 T00530010  RH  074%=      5-min Rain = 0
KCL2 110549Z 19008KT 05/01 A3033 RMK A01 T00530010  RH  074%=      5-min Rain = 0
KCL2 110550Z 19007KT 05/01 A3033 RMK A01 T00530010  RH  074%=      5-min Rain = 0
KCL2 110551Z 19008KT 05/01 A3033 RMK A01 T00530010  RH  074%=      5-min Rain = 0
KCL2 110552Z 19008KT 05/01 A3033 RMK A01 T00530010  RH  074%=      5-min Rain = 0
KCL2 110553Z 19008KT 05/01 A3033 RMK A01 T00530010  RH  074%=      5-min Rain = 0
KCL2 110554Z 19007KT 05/01 A3033 RMK A01 T00530010  RH  074%=      5-min Rain = 0
KCL2 110555Z 19007KT 05/01 A3033 RMK A01 T00520010  RH  074%=      5-min Rain = 0
KCL2 110556Z 19007KT 05/01 A3033 RMK A01 T00520010  RH  074%=      5-min Rain = 0
KCL2 110557Z 19008KT 05/01 A3033 RMK A01 T00510009  RH  075%=      5-min Rain = 0
KCL2 110558Z 19008KT 05/01 A3033 RMK A01 T00500010  RH  075%=      5-min Rain = 0
KCL2 110559Z 19008KT 05/01 A3033 RMK A01 T00500010  RH  075%=      5-min Rain = 0

Page generated in 0.1255 seconds.